Time,TemperatureF,DewpointF,PressureIn,WindDirection,WindDirectionDegrees,WindSpeedMPH,WindSpeedGustMPH,Humidity,HourlyPrecipIn,Conditions,Clouds,dailyrainin,SoftwareType,DateUTC
2013-12-28 00:00:00,36.2,28.4,30.16,SW,225,3.0,5.0,73,0.00,,---,0.00,VWS V15.00,2013-12-28 06:00:00,
2013-12-28 00:10:00,35.8,28.0,30.16,SW,225,3.0,5.0,73,0.00,,---,0.00,VWS V15.00,2013-12-28 06:10:00,
2013-12-28 00:20:00,35.8,28.0,30.15,SW,225,3.0,5.0,73,0.00,,---,0.00,VWS V15.00,2013-12-28 06:20:00,
2013-12-28 00:30:00,36.3,29.1,30.14,SW,225,4.0,6.0,75,0.00,,---,0.00,VWS V15.00,2013-12-28 06:30:00,
2013-12-28 00:40:00,36.9,29.1,30.14,SW,225,4.0,5.0,73,0.00,,---,0.00,VWS V15.00,2013-12-28 06:40:00,
2013-12-28 00:50:00,36.2,28.4,30.13,SW,225,3.0,4.0,73,0.00,,---,0.00,VWS V15.00,2013-12-28 06:50:00,
2013-12-28 01:00:00,35.2,27.8,30.13,SW,225,1.0,3.0,74,0.00,,---,0.00,VWS V15.00,2013-12-28 07:00:00,
2013-12-28 01:10:00,34.3,27.2,30.13,SW,225,0.0,2.0,75,0.00,,---,0.00,VWS V15.00,2013-12-28 07:10:00,
2013-12-28 01:20:00,34.3,27.9,30.12,SW,225,0.0,2.0,77,0.00,,---,0.00,VWS V15.00,2013-12-28 07:20:00,
2013-12-28 01:30:00,34.7,28.2,30.11,SW,225,2.0,3.0,77,0.00,,---,0.00,VWS V15.00,2013-12-28 07:30:00,
2013-12-28 01:40:00,35.0,28.5,30.11,SSW,202,3.0,5.0,77,0.00,,---,0.00,VWS V15.00,2013-12-28 07:40:00,
2013-12-28 01:50:00,35.0,28.5,30.11,South,180,3.0,5.0,77,0.00,,---,0.00,VWS V15.00,2013-12-28 07:50:00,
2013-12-28 02:00:00,34.6,28.1,30.11,South,180,3.0,5.0,77,0.00,,---,0.00,VWS V15.00,2013-12-28 08:00:00,
2013-12-28 02:10:00,34.6,28.1,30.11,South,180,2.0,3.0,77,0.00,,---,0.00,VWS V15.00,2013-12-28 08:10:00,
2013-12-28 02:20:00,33.8,27.4,30.11,South,180,0.0,1.0,77,0.00,,---,0.00,VWS V15.00,2013-12-28 08:20:00,
2013-12-28 02:30:00,33.2,27.1,30.11,South,180,0.0,0.0,78,0.00,,---,0.00,VWS V15.00,2013-12-28 08:30:00,
2013-12-28 02:40:00,32.9,27.1,30.11,South,180,0.0,0.0,79,0.00,,---,0.00,VWS V15.00,2013-12-28 08:40:00,
2013-12-28 02:50:00,32.9,27.1,30.11,South,180,0.0,1.0,79,0.00,,---,0.00,VWS V15.00,2013-12-28 08:50:00,
2013-12-28 03:00:00,32.1,26.6,30.10,South,180,1.0,2.0,80,0.00,,---,0.00,VWS V15.00,2013-12-28 09:00:00,
2013-12-28 03:10:00,31.9,27.0,30.10,South,180,2.0,3.0,82,0.00,,---,0.00,VWS V15.00,2013-12-28 09:10:00,
2013-12-28 03:20:00,31.6,26.8,30.10,South,180,1.0,2.0,82,0.00,,---,0.00,VWS V15.00,2013-12-28 09:20:00,
2013-12-28 03:30:00,31.3,26.8,30.10,South,180,2.0,2.0,83,0.00,,---,0.00,VWS V15.00,2013-12-28 09:30:00,
2013-12-28 03:40:00,30.9,26.6,30.10,South,180,1.0,2.0,84,0.00,,---,0.00,VWS V15.00,2013-12-28 09:40:00,
2013-12-28 03:50:00,30.9,27.2,30.09,South,180,1.0,2.0,86,0.00,,---,0.00,VWS V15.00,2013-12-28 09:50:00,
2013-12-28 04:00:00,30.6,26.9,30.08,South,180,2.0,3.0,86,0.00,,---,0.00,VWS V15.00,2013-12-28 10:00:00,
2013-12-28 04:10:00,30.1,26.4,30.08,South,180,2.0,3.0,86,0.00,,---,0.00,VWS V15.00,2013-12-28 10:10:00,
2013-12-28 04:20:00,29.8,26.4,30.09,South,180,2.0,3.0,87,0.00,,---,0.00,VWS V15.00,2013-12-28 10:20:00,
2013-12-28 04:30:00,29.8,26.7,30.08,South,180,2.0,3.0,88,0.00,,---,0.00,VWS V15.00,2013-12-28 10:30:00,
2013-12-28 04:40:00,30.4,27.5,30.08,South,180,1.0,3.0,89,0.00,,---,0.00,VWS V15.00,2013-12-28 10:40:00,
2013-12-28 04:50:00,31.0,27.9,30.08,South,180,1.0,2.0,88,0.00,,---,0.00,VWS V15.00,2013-12-28 10:50:00,
2013-12-28 05:00:00,30.3,26.9,30.07,South,180,2.0,3.0,87,0.00,,---,0.00,VWS V15.00,2013-12-28 11:00:00,
2013-12-28 05:10:00,31.3,27.6,30.07,South,180,2.0,4.0,86,0.00,,---,0.00,VWS V15.00,2013-12-28 11:10:00,
2013-12-28 05:20:00,31.0,26.5,30.07,South,180,2.0,4.0,83,0.00,,---,0.00,VWS V15.00,2013-12-28 11:20:00,
2013-12-28 05:30:00,32.4,26.6,30.06,South,180,3.0,4.0,79,0.00,,---,0.00,VWS V15.00,2013-12-28 11:30:00,
2013-12-28 05:40:00,32.7,26.3,30.06,South,180,2.0,3.0,77,0.00,,---,0.00,VWS V15.00,2013-12-28 11:40:00,
2013-12-28 05:50:00,32.7,26.0,30.06,South,180,2.0,4.0,76,0.00,,---,0.00,VWS V15.00,2013-12-28 11:50:00,
2013-12-28 06:00:00,31.9,24.9,30.06,South,180,3.0,5.0,75,0.00,,---,0.00,VWS V15.00,2013-12-28 12:00:00,
2013-12-28 06:10:00,31.2,24.5,30.06,South,180,3.0,4.0,76,0.00,,---,0.00,VWS V15.00,2013-12-28 12:10:00,
2013-12-28 06:20:00,30.9,24.2,30.06,South,180,2.0,4.0,76,0.00,,---,0.00,VWS V15.00,2013-12-28 12:20:00,
2013-12-28 06:30:00,30.6,24.3,30.06,South,180,2.0,3.0,77,0.00,,---,0.00,VWS V15.00,2013-12-28 12:30:00,
2013-12-28 06:40:00,30.3,24.3,30.06,South,180,4.0,6.0,78,0.00,,---,0.00,VWS V15.00,2013-12-28 12:40:00,
2013-12-28 06:50:00,30.1,24.4,30.06,South,180,3.0,6.0,79,0.00,,---,0.00,VWS V15.00,2013-12-28 12:50:00,
2013-12-28 07:00:00,30.0,24.3,30.06,South,180,3.0,5.0,79,0.00,,---,0.00,VWS V15.00,2013-12-28 13:00:00,
2013-12-28 07:10:00,29.8,24.4,30.06,South,180,4.0,5.0,80,0.00,,---,0.00,VWS V15.00,2013-12-28 13:10:00,
2013-12-28 07:20:00,29.7,24.6,30.06,SSW,202,4.0,5.0,81,0.00,,---,0.00,VWS V15.00,2013-12-28 13:20:00,
2013-12-28 07:30:00,29.4,24.3,30.06,South,180,3.0,5.0,81,0.00,,---,0.00,VWS V15.00,2013-12-28 13:30:00,
2013-12-28 07:40:00,29.1,24.3,30.06,South,180,3.0,5.0,82,0.00,,---,0.00,VWS V15.00,2013-12-28 13:40:00,
2013-12-28 07:50:00,29.1,24.3,30.06,South,180,3.0,5.0,82,0.00,,---,0.00,VWS V15.00,2013-12-28 13:50:00,
2013-12-28 08:00:00,29.3,24.5,30.06,South,180,3.0,6.0,82,0.00,,---,0.00,VWS V15.00,2013-12-28 14:00:00,
2013-12-28 08:10:00,29.3,24.5,30.06,South,180,4.0,6.0,82,0.00,,---,0.00,VWS V15.00,2013-12-28 14:10:00,
2013-12-28 08:20:00,29.4,24.6,30.05,SSW,202,4.0,7.0,82,0.00,,---,0.00,VWS V15.00,2013-12-28 14:20:00,
2013-12-28 08:38:00,29.4,24.6,30.05,SSW,202,4.0,7.0,82,0.00,,---,0.00,VWS V15.00,2013-12-28 14:38:00,
2013-12-28 08:43:00,30.6,25.5,30.05,South,177,4.0,7.0,81,0.00,,---,0.00,VWS V15.00,2013-12-28 14:43:00,
2013-12-28 08:48:00,30.9,25.8,30.04,South,184,5.0,7.0,81,0.00,,---,0.00,VWS V15.00,2013-12-28 14:48:00,
2013-12-28 08:53:00,30.9,25.5,30.04,South,181,5.0,6.0,80,0.00,,---,0.00,VWS V15.00,2013-12-28 14:53:00,
2013-12-28 08:58:00,31.5,26.0,30.04,SSW,195,6.0,9.0,80,0.00,,---,0.00,VWS V15.00,2013-12-28 14:58:00,
2013-12-28 08:59:00,31.5,26.0,30.04,South,184,4.0,9.0,80,0.00,,---,0.00,VWS V15.00,2013-12-28 14:59:00,
2013-12-28 09:03:00,31.9,26.1,30.03,South,186,5.0,9.0,79,0.00,,---,0.00,VWS V15.00,2013-12-28 15:03:00,
2013-12-28 09:04:00,31.9,26.1,30.03,SSE,166,5.0,9.0,79,0.00,,---,0.00,VWS V15.00,2013-12-28 15:04:00,
2013-12-28 09:08:00,32.2,26.1,30.03,South,170,4.0,9.0,78,0.00,,---,0.00,VWS V15.00,2013-12-28 15:08:00,
2013-12-28 09:09:00,32.2,26.1,30.03,South,184,5.0,9.0,78,0.00,,---,0.00,VWS V15.00,2013-12-28 15:09:00,
2013-12-28 09:13:00,32.5,26.4,30.03,SSW,193,5.0,7.0,78,0.00,,---,0.00,VWS V15.00,2013-12-28 15:13:00,
2013-12-28 09:14:00,32.7,26.6,30.03,South,178,5.0,7.0,78,0.00,,---,0.00,VWS V15.00,2013-12-28 15:14:00,
2013-12-28 09:18:00,32.8,26.4,30.03,SSW,195,7.0,9.0,77,0.00,,---,0.00,VWS V15.00,2013-12-28 15:18:00,
2013-12-28 09:19:00,32.9,26.5,30.03,SSE,149,4.0,9.0,77,0.00,,---,0.00,VWS V15.00,2013-12-28 15:19:00,
2013-12-28 09:23:00,33.2,26.5,30.03,South,191,3.0,7.0,76,0.00,,---,0.00,VWS V15.00,2013-12-28 15:23:00,
2013-12-28 09:24:00,33.2,26.5,30.03,South,191,5.0,7.0,76,0.00,,---,0.00,VWS V15.00,2013-12-28 15:24:00,
2013-12-28 09:28:00,33.5,26.8,30.03,South,191,5.0,8.0,76,0.00,,---,0.00,VWS V15.00,2013-12-28 15:28:00,
2013-12-28 09:29:00,33.7,27.0,30.03,South,191,4.0,8.0,76,0.00,,---,0.00,VWS V15.00,2013-12-28 15:29:00,
2013-12-28 09:33:00,34.0,26.9,30.03,South,191,4.0,6.0,75,0.00,,---,0.00,VWS V15.00,2013-12-28 15:33:00,
2013-12-28 09:34:00,34.1,27.0,30.03,South,191,3.0,6.0,75,0.00,,---,0.00,VWS V15.00,2013-12-28 15:34:00,
2013-12-28 09:38:00,34.6,27.2,30.03,South,190,6.0,6.0,74,0.00,,---,0.00,VWS V15.00,2013-12-28 15:38:00,
2013-12-28 09:39:00,34.6,27.2,30.03,SSW,193,3.0,6.0,74,0.00,,---,0.00,VWS V15.00,2013-12-28 15:39:00,
2013-12-28 09:43:00,35.0,27.2,30.03,SSW,197,4.0,6.0,73,0.00,,---,0.00,VWS V15.00,2013-12-28 15:43:00,
2013-12-28 09:44:00,35.2,27.4,30.03,SSW,207,3.0,6.0,73,0.00,,---,0.00,VWS V15.00,2013-12-28 15:44:00,
2013-12-28 09:48:00,35.5,27.4,30.02,SSW,205,5.0,9.0,72,0.00,,---,0.00,VWS V15.00,2013-12-28 15:48:00,
2013-12-28 09:49:00,35.6,27.5,30.02,SSW,207,5.0,9.0,72,0.00,,---,0.00,VWS V15.00,2013-12-28 15:49:00,
2013-12-28 09:53:00,36.0,27.2,30.02,SSW,208,9.0,13.0,70,0.00,,---,0.00,VWS V15.00,2013-12-28 15:53:00,
2013-12-28 09:54:00,36.0,27.2,30.02,SSW,205,11.0,13.0,70,0.00,,---,0.00,VWS V15.00,2013-12-28 15:54:00,
2013-12-28 09:55:00,36.2,27.4,30.02,SSW,205,10.0,14.0,70,0.00,,---,0.00,VWS V15.00,2013-12-28 15:55:00,
2013-12-28 09:58:00,36.8,27.6,30.02,SSW,209,11.0,14.0,69,0.00,,---,0.00,VWS V15.00,2013-12-28 15:58:00,
2013-12-28 09:59:00,36.8,27.6,30.02,SSW,213,10.0,14.0,69,0.00,,---,0.00,VWS V15.00,2013-12-28 15:59:00,
2013-12-28 10:00:00,36.8,27.6,30.01,SW,214,12.0,14.0,69,0.00,,---,0.00,VWS V15.00,2013-12-28 16:00:00,
2013-12-28 10:03:00,37.0,27.4,30.01,SSW,210,12.0,14.0,68,0.00,,---,0.00,VWS V15.00,2013-12-28 16:03:00,
2013-12-28 10:04:00,37.2,27.6,30.01,SSW,208,13.0,14.0,68,0.00,,---,0.00,VWS V15.00,2013-12-28 16:04:00,
2013-12-28 10:05:00,37.2,27.6,30.01,SW,215,13.0,14.0,68,0.00,,---,0.00,VWS V15.00,2013-12-28 16:05:00,
2013-12-28 10:08:00,37.6,27.6,30.01,SSW,209,12.0,15.0,67,0.00,,---,0.00,VWS V15.00,2013-12-28 16:08:00,
2013-12-28 10:09:00,37.6,27.6,30.01,SSW,206,12.0,15.0,67,0.00,,---,0.00,VWS V15.00,2013-12-28 16:09:00,
2013-12-28 10:10:00,37.6,27.6,30.01,SSW,213,11.0,15.0,67,0.00,,---,0.00,VWS V15.00,2013-12-28 16:10:00,
2013-12-28 10:13:00,38.0,28.0,30.01,SSW,211,11.0,16.0,67,0.00,,---,0.00,VWS V15.00,2013-12-28 16:13:00,
2013-12-28 10:14:00,38.0,28.0,30.01,SSW,201,11.0,16.0,67,0.00,,---,0.00,VWS V15.00,2013-12-28 16:14:00,
2013-12-28 10:15:00,38.2,27.9,30.01,SSW,202,10.0,16.0,66,0.00,,---,0.00,VWS V15.00,2013-12-28 16:15:00,
2013-12-28 10:18:00,38.3,28.0,30.01,SSW,204,10.0,16.0,66,0.00,,---,0.00,VWS V15.00,2013-12-28 16:18:00,
2013-12-28 10:19:00,38.3,28.0,30.01,SSW,202,12.0,16.0,66,0.00,,---,0.00,VWS V15.00,2013-12-28 16:19:00,
2013-12-28 10:20:00,38.3,28.0,30.01,SSW,211,12.0,16.0,66,0.00,,---,0.00,VWS V15.00,2013-12-28 16:20:00,
2013-12-28 10:21:00,38.5,28.1,30.01,SSW,198,14.0,14.0,66,0.00,,---,0.00,VWS V15.00,2013-12-28 16:21:00,
2013-12-28 10:23:00,38.8,28.1,30.01,SSW,196,12.0,15.0,65,0.00,,---,0.00,VWS V15.00,2013-12-28 16:23:00,
2013-12-28 10:24:00,38.8,28.1,30.01,SSW,207,11.0,15.0,65,0.00,,---,0.00,VWS V15.00,2013-12-28 16:24:00,
2013-12-28 10:25:00,38.8,28.1,30.01,SSW,207,12.0,15.0,65,0.00,,---,0.00,VWS V15.00,2013-12-28 16:25:00,
2013-12-28 10:26:00,38.9,28.1,30.01,SSW,209,11.0,15.0,65,0.00,,---,0.00,VWS V15.00,2013-12-28 16:26:00,
2013-12-28 10:28:00,39.1,28.3,30.01,SSW,210,10.0,15.0,65,0.00,,---,0.00,VWS V15.00,2013-12-28 16:28:00,
2013-12-28 10:29:00,39.2,28.4,30.01,SSW,209,10.0,15.0,65,0.00,,---,0.00,VWS V15.00,2013-12-28 16:29:00,
2013-12-28 10:30:00,39.2,28.4,30.00,SSW,210,11.0,15.0,65,0.00,,---,0.00,VWS V15.00,2013-12-28 16:30:00,
2013-12-28 10:31:00,39.2,28.4,30.00,SSW,209,12.0,13.0,65,0.00,,---,0.00,VWS V15.00,2013-12-28 16:31:00,
2013-12-28 10:33:00,39.5,28.4,30.00,SSW,206,9.0,13.0,64,0.00,,---,0.00,VWS V15.00,2013-12-28 16:33:00,
2013-12-28 10:34:00,39.5,28.4,30.00,SW,215,7.0,13.0,64,0.00,,---,0.00,VWS V15.00,2013-12-28 16:34:00,
2013-12-28 10:35:00,39.5,28.4,30.00,SW,215,5.0,13.0,64,0.00,,---,0.00,VWS V15.00,2013-12-28 16:35:00,
2013-12-28 10:36:00,39.6,28.4,30.00,SSW,203,7.0,13.0,64,0.00,,---,0.00,VWS V15.00,2013-12-28 16:36:00,
2013-12-28 10:38:00,39.8,28.6,30.00,SSW,207,5.0,13.0,64,0.00,,---,0.00,VWS V15.00,2013-12-28 16:38:00,
2013-12-28 10:39:00,39.8,28.6,30.00,SSW,208,6.0,13.0,64,0.00,,---,0.00,VWS V15.00,2013-12-28 16:39:00,
2013-12-28 10:40:00,39.8,28.6,30.00,SSW,210,6.0,13.0,64,0.00,,---,0.00,VWS V15.00,2013-12-28 16:40:00,
2013-12-28 10:41:00,39.8,28.6,30.00,SSW,209,6.0,6.0,64,0.00,,---,0.00,VWS V15.00,2013-12-28 16:41:00,
2013-12-28 10:44:00,39.9,28.7,30.00,SSW,207,6.0,7.0,64,0.00,,---,0.00,VWS V15.00,2013-12-28 16:44:00,
2013-12-28 10:45:00,40.1,28.5,30.00,SSW,206,8.0,10.0,63,0.00,,---,0.00,VWS V15.00,2013-12-28 16:45:00,
2013-12-28 10:46:00,40.1,28.5,30.00,SSW,208,8.0,10.0,63,0.00,,---,0.00,VWS V15.00,2013-12-28 16:46:00,
2013-12-28 10:49:00,40.2,28.6,30.00,SSW,207,7.0,10.0,63,0.00,,---,0.00,VWS V15.00,2013-12-28 16:49:00,
2013-12-28 10:50:00,40.2,28.6,30.00,SSW,207,9.0,13.0,63,0.00,,---,0.00,VWS V15.00,2013-12-28 16:50:00,
2013-12-28 10:51:00,40.3,28.7,30.00,SSW,203,10.0,11.0,63,0.00,,---,0.00,VWS V15.00,2013-12-28 16:51:00,
2013-12-28 10:54:00,40.5,28.5,30.00,SSW,194,12.0,13.0,62,0.00,,---,0.00,VWS V15.00,2013-12-28 16:54:00,
2013-12-28 10:55:00,40.6,28.6,30.00,SSW,196,11.0,13.0,62,0.00,,---,0.00,VWS V15.00,2013-12-28 16:55:00,
2013-12-28 10:56:00,40.6,28.6,30.00,SSW,201,14.0,14.0,62,0.00,,---,0.00,VWS V15.00,2013-12-28 16:56:00,
2013-12-28 10:59:00,40.8,28.8,30.00,SSW,207,14.0,15.0,62,0.00,,---,0.00,VWS V15.00,2013-12-28 16:59:00,
2013-12-28 11:00:00,40.8,28.4,29.99,SSW,196,12.0,15.0,61,0.00,,---,0.00,VWS V15.00,2013-12-28 17:00:00,
2013-12-28 11:01:00,40.9,28.5,29.99,SSW,205,12.0,14.0,61,0.00,,---,0.00,VWS V15.00,2013-12-28 17:01:00,
2013-12-28 11:04:00,41.1,28.7,29.99,SSW,198,9.0,15.0,61,0.00,,---,0.00,VWS V15.00,2013-12-28 17:04:00,
2013-12-28 11:05:00,41.1,28.7,29.99,SSW,199,9.0,15.0,61,0.00,,---,0.00,VWS V15.00,2013-12-28 17:05:00,
2013-12-28 11:06:00,41.1,28.7,29.99,SSW,196,12.0,15.0,61,0.00,,---,0.00,VWS V15.00,2013-12-28 17:06:00,
2013-12-28 11:07:00,41.1,28.7,29.99,SSW,192,10.0,15.0,61,0.00,,---,0.00,VWS V15.00,2013-12-28 17:07:00,
2013-12-28 11:09:00,41.2,28.8,29.99,SSW,199,12.0,15.0,61,0.00,,---,0.00,VWS V15.00,2013-12-28 17:09:00,
2013-12-28 11:11:00,41.3,28.5,29.99,SSW,211,12.0,13.0,60,0.00,,---,0.00,VWS V15.00,2013-12-28 17:11:00,
2013-12-28 11:12:00,41.3,28.5,29.99,SSW,202,11.0,13.0,60,0.00,,---,0.00,VWS V15.00,2013-12-28 17:12:00,
2013-12-28 11:14:00,41.3,28.5,29.99,SSW,204,11.0,14.0,60,0.00,,---,0.00,VWS V15.00,2013-12-28 17:14:00,
2013-12-28 11:16:00,41.5,28.7,29.99,SSW,212,9.0,14.0,60,0.00,,---,0.00,VWS V15.00,2013-12-28 17:16:00,
2013-12-28 11:17:00,41.5,28.7,29.99,SSW,194,10.0,14.0,60,0.00,,---,0.00,VWS V15.00,2013-12-28 17:17:00,
2013-12-28 11:19:00,41.5,28.7,29.99,SSW,192,11.0,14.0,60,0.00,,---,0.00,VWS V15.00,2013-12-28 17:19:00,
2013-12-28 11:21:00,41.6,28.8,29.99,SSW,209,12.0,13.0,60,0.00,,---,0.00,VWS V15.00,2013-12-28 17:21:00,
2013-12-28 11:22:00,41.6,28.4,29.99,SSW,200,10.0,15.0,59,0.00,,---,0.00,VWS V15.00,2013-12-28 17:22:00,
2013-12-28 11:24:00,41.8,28.5,29.99,SSW,194,10.0,15.0,59,0.00,,---,0.00,VWS V15.00,2013-12-28 17:24:00,
2013-12-28 11:26:00,41.9,28.6,29.99,South,188,14.0,15.0,59,0.00,,---,0.00,VWS V15.00,2013-12-28 17:26:00,
2013-12-28 11:27:00,41.9,28.6,29.99,SSW,205,12.0,15.0,59,0.00,,---,0.00,VWS V15.00,2013-12-28 17:27:00,
2013-12-28 11:29:00,41.9,28.6,29.99,South,189,10.0,15.0,59,0.00,,---,0.00,VWS V15.00,2013-12-28 17:29:00,
2013-12-28 11:31:00,42.1,28.8,29.97,South,184,12.0,12.0,59,0.00,,---,0.00,VWS V15.00,2013-12-28 17:31:00,
2013-12-28 11:32:00,42.1,28.8,29.97,South,184,14.0,14.0,59,0.00,,---,0.00,VWS V15.00,2013-12-28 17:32:00,
2013-12-28 11:33:00,42.1,28.8,29.97,SSW,196,10.0,14.0,59,0.00,,---,0.00,VWS V15.00,2013-12-28 17:33:00,
2013-12-28 11:34:00,42.1,28.8,29.97,SSW,197,12.0,15.0,59,0.00,,---,0.00,VWS V15.00,2013-12-28 17:34:00,
2013-12-28 11:36:00,42.2,28.5,29.97,SSW,200,11.0,15.0,58,0.00,,---,0.00,VWS V15.00,2013-12-28 17:36:00,
2013-12-28 11:37:00,42.2,28.5,29.97,SSW,206,10.0,15.0,58,0.00,,---,0.00,VWS V15.00,2013-12-28 17:37:00,
2013-12-28 11:38:00,42.3,28.6,29.97,SSW,193,12.0,15.0,58,0.00,,---,0.00,VWS V15.00,2013-12-28 17:38:00,
2013-12-28 11:39:00,42.3,28.6,29.97,SSW,207,10.0,15.0,58,0.00,,---,0.00,VWS V15.00,2013-12-28 17:39:00,
2013-12-28 11:41:00,42.5,28.4,29.97,SW,214,11.0,11.0,57,0.00,,---,0.00,VWS V15.00,2013-12-28 17:41:00,
2013-12-28 11:42:00,42.6,28.5,29.97,SSW,202,14.0,15.0,57,0.00,,---,0.00,VWS V15.00,2013-12-28 17:42:00,
2013-12-28 11:43:00,42.8,28.6,29.97,SSW,207,11.0,15.0,57,0.00,,---,0.00,VWS V15.00,2013-12-28 17:43:00,
2013-12-28 11:44:00,42.8,28.6,29.97,South,185,9.0,15.0,57,0.00,,---,0.00,VWS V15.00,2013-12-28 17:44:00,
2013-12-28 11:46:00,42.9,28.3,29.96,SSW,202,13.0,15.0,56,0.00,,---,0.00,VWS V15.00,2013-12-28 17:46:00,
2013-12-28 11:47:00,42.9,28.7,29.96,SSW,202,10.0,15.0,57,0.00,,---,0.00,VWS V15.00,2013-12-28 17:47:00,
2013-12-28 11:49:00,42.9,28.3,29.96,SSW,194,12.0,15.0,56,0.00,,---,0.00,VWS V15.00,2013-12-28 17:49:00,
2013-12-28 11:51:00,43.1,28.5,29.96,SSW,201,16.0,17.0,56,0.00,,---,0.00,VWS V15.00,2013-12-28 17:51:00,
2013-12-28 11:52:00,43.2,28.6,29.96,SSW,207,12.0,17.0,56,0.00,,---,0.00,VWS V15.00,2013-12-28 17:52:00,
2013-12-28 11:54:00,43.3,28.2,29.96,SSW,197,12.0,17.0,55,0.00,,---,0.00,VWS V15.00,2013-12-28 17:54:00,
2013-12-28 11:56:00,43.3,28.7,29.96,SSW,205,11.0,17.0,56,0.00,,---,0.00,VWS V15.00,2013-12-28 17:56:00,
2013-12-28 11:57:00,43.3,28.7,29.96,SSW,208,10.0,17.0,56,0.00,,---,0.00,VWS V15.00,2013-12-28 17:57:00,
2013-12-28 11:59:00,43.3,28.7,29.96,South,184,10.0,17.0,56,0.00,,---,0.00,VWS V15.00,2013-12-28 17:59:00,
2013-12-28 12:01:00,43.3,28.7,29.95,SSW,205,11.0,14.0,56,0.00,,---,0.00,VWS V15.00,2013-12-28 18:01:00,
2013-12-28 12:02:00,43.5,28.9,29.95,South,186,13.0,14.0,56,0.00,,---,0.00,VWS V15.00,2013-12-28 18:02:00,
2013-12-28 12:04:00,43.8,28.7,29.95,SSW,192,9.0,15.0,55,0.00,,---,0.00,VWS V15.00,2013-12-28 18:04:00,
2013-12-28 12:05:00,43.9,28.8,29.95,SSW,202,11.0,15.0,55,0.00,,---,0.00,VWS V15.00,2013-12-28 18:05:00,
2013-12-28 12:06:00,43.9,28.4,29.95,SSW,206,13.0,15.0,54,0.00,,---,0.00,VWS V15.00,2013-12-28 18:06:00,
2013-12-28 12:07:00,43.9,28.8,29.95,SSW,194,12.0,15.0,55,0.00,,---,0.00,VWS V15.00,2013-12-28 18:07:00,
2013-12-28 12:09:00,43.9,28.8,29.95,SSW,202,10.0,17.0,55,0.00,,---,0.00,VWS V15.00,2013-12-28 18:09:00,
2013-12-28 12:10:00,43.9,28.8,29.95,SSW,207,11.0,17.0,55,0.00,,---,0.00,VWS V15.00,2013-12-28 18:10:00,
2013-12-28 12:11:00,43.9,28.8,29.95,SSW,203,12.0,12.0,55,0.00,,---,0.00,VWS V15.00,2013-12-28 18:11:00,
2013-12-28 12:12:00,43.9,28.8,29.95,South,186,12.0,13.0,55,0.00,,---,0.00,VWS V15.00,2013-12-28 18:12:00,
2013-12-28 12:14:00,43.9,28.8,29.95,SSW,200,9.0,13.0,55,0.00,,---,0.00,VWS V15.00,2013-12-28 18:14:00,
2013-12-28 12:15:00,43.9,28.8,29.94,SSW,194,10.0,13.0,55,0.00,,---,0.00,VWS V15.00,2013-12-28 18:15:00,
2013-12-28 12:16:00,44.1,29.0,29.94,SSW,207,12.0,13.0,55,0.00,,---,0.00,VWS V15.00,2013-12-28 18:16:00,
2013-12-28 12:17:00,44.1,29.0,29.94,SSW,208,11.0,13.0,55,0.00,,---,0.00,VWS V15.00,2013-12-28 18:17:00,
2013-12-28 12:18:00,44.1,29.0,29.94,SSW,196,10.0,13.0,55,0.00,,---,0.00,VWS V15.00,2013-12-28 18:18:00,
2013-12-28 12:19:00,44.2,28.6,29.94,SSW,198,11.0,13.0,54,0.00,,---,0.00,VWS V15.00,2013-12-28 18:19:00,
2013-12-28 12:20:00,44.2,28.6,29.94,SSW,205,10.0,13.0,54,0.00,,---,0.00,VWS V15.00,2013-12-28 18:20:00,
2013-12-28 12:21:00,44.2,28.6,29.94,SSW,198,10.0,13.0,54,0.00,,---,0.00,VWS V15.00,2013-12-28 18:21:00,
2013-12-28 12:22:00,44.3,28.7,29.94,South,186,12.0,13.0,54,0.00,,---,0.00,VWS V15.00,2013-12-28 18:22:00,
2013-12-28 12:23:00,44.3,28.7,29.94,SSW,200,9.0,13.0,54,0.00,,---,0.00,VWS V15.00,2013-12-28 18:23:00,
2013-12-28 12:24:00,44.5,28.9,29.94,SSW,192,11.0,14.0,54,0.00,,---,0.00,VWS V15.00,2013-12-28 18:24:00,
2013-12-28 12:25:00,44.5,28.9,29.94,SSW,197,11.0,15.0,54,0.00,,---,0.00,VWS V15.00,2013-12-28 18:25:00,
2013-12-28 12:26:00,44.6,29.0,29.94,SSW,204,11.0,15.0,54,0.00,,---,0.00,VWS V15.00,2013-12-28 18:26:00,
2013-12-28 12:27:00,44.6,29.0,29.94,South,190,10.0,15.0,54,0.00,,---,0.00,VWS V15.00,2013-12-28 18:27:00,
2013-12-28 12:28:00,44.6,29.0,29.94,SSW,207,11.0,15.0,54,0.00,,---,0.00,VWS V15.00,2013-12-28 18:28:00,
2013-12-28 12:29:00,44.6,29.0,29.94,SSW,198,9.0,15.0,54,0.00,,---,0.00,VWS V15.00,2013-12-28 18:29:00,
2013-12-28 12:30:00,44.6,29.0,29.92,SSW,203,9.0,15.0,54,0.00,,---,0.00,VWS V15.00,2013-12-28 18:30:00,
2013-12-28 12:32:00,44.6,29.0,29.92,SSW,206,10.0,11.0,54,0.00,,---,0.00,VWS V15.00,2013-12-28 18:32:00,
2013-12-28 12:33:00,44.6,29.0,29.92,SSW,208,9.0,13.0,54,0.00,,---,0.00,VWS V15.00,2013-12-28 18:33:00,
2013-12-28 12:34:00,44.6,29.0,29.92,SSW,202,13.0,13.0,54,0.00,,---,0.00,VWS V15.00,2013-12-28 18:34:00,
2013-12-28 12:35:00,44.6,29.0,29.92,SSW,207,10.0,14.0,54,0.00,,---,0.00,VWS V15.00,2013-12-28 18:35:00,
2013-12-28 12:37:00,44.6,29.0,29.92,SSW,197,11.0,15.0,54,0.00,,---,0.00,VWS V15.00,2013-12-28 18:37:00,
2013-12-28 12:39:00,44.6,29.0,29.92,SSW,208,12.0,15.0,54,0.00,,---,0.00,VWS V15.00,2013-12-28 18:39:00,
2013-12-28 12:40:00,44.8,29.2,29.92,SSW,205,13.0,15.0,54,0.00,,---,0.00,VWS V15.00,2013-12-28 18:40:00,
2013-12-28 12:42:00,44.9,29.3,29.92,SSW,205,12.0,14.0,54,0.00,,---,0.00,VWS V15.00,2013-12-28 18:42:00,
2013-12-28 12:44:00,44.9,29.3,29.92,SSW,207,12.0,14.0,54,0.00,,---,0.00,VWS V15.00,2013-12-28 18:44:00,
2013-12-28 12:45:00,45.1,29.0,29.91,SSW,209,10.0,14.0,53,0.00,,---,0.00,VWS V15.00,2013-12-28 18:45:00,
2013-12-28 12:47:00,45.1,29.5,29.91,SSW,205,11.0,14.0,54,0.00,,---,0.00,VWS V15.00,2013-12-28 18:47:00,
2013-12-28 12:49:00,45.2,29.6,29.91,SSW,205,10.0,15.0,54,0.00,,---,0.00,VWS V15.00,2013-12-28 18:49:00,
2013-12-28 12:50:00,45.2,29.6,29.91,SSW,209,11.0,15.0,54,0.00,,---,0.00,VWS V15.00,2013-12-28 18:50:00,
2013-12-28 12:52:00,45.4,29.3,29.91,SSW,213,11.0,14.0,53,0.00,,---,0.00,VWS V15.00,2013-12-28 18:52:00,
2013-12-28 12:53:00,45.4,29.3,29.91,SSW,206,12.0,14.0,53,0.00,,---,0.00,VWS V15.00,2013-12-28 18:53:00,
2013-12-28 12:54:00,45.5,29.4,29.91,SSW,209,10.0,14.0,53,0.00,,---,0.00,VWS V15.00,2013-12-28 18:54:00,
2013-12-28 12:55:00,45.5,29.4,29.91,SSW,209,10.0,14.0,53,0.00,,---,0.00,VWS V15.00,2013-12-28 18:55:00,
2013-12-28 12:57:00,45.7,29.6,29.91,SSW,207,11.0,14.0,53,0.00,,---,0.00,VWS V15.00,2013-12-28 18:57:00,
2013-12-28 12:58:00,45.7,29.6,29.91,SSW,205,10.0,14.0,53,0.00,,---,0.00,VWS V15.00,2013-12-28 18:58:00,
2013-12-28 12:59:00,45.7,29.6,29.91,SSW,205,10.0,14.0,53,0.00,,---,0.00,VWS V15.00,2013-12-28 18:59:00,
2013-12-28 13:00:00,45.8,29.7,29.90,SSW,209,13.0,14.0,53,0.00,,---,0.00,VWS V15.00,2013-12-28 19:00:00,
2013-12-28 13:02:00,46.0,29.8,29.90,SSW,212,10.0,13.0,53,0.00,,---,0.00,VWS V15.00,2013-12-28 19:02:00,
2013-12-28 13:03:00,46.0,29.8,29.90,SSW,210,10.0,13.0,53,0.00,,---,0.00,VWS V15.00,2013-12-28 19:03:00,
2013-12-28 13:04:00,46.0,29.8,29.90,SSW,208,10.0,13.0,53,0.00,,---,0.00,VWS V15.00,2013-12-28 19:04:00,
2013-12-28 13:05:00,46.0,29.8,29.90,SSW,209,10.0,13.0,53,0.00,,---,0.00,VWS V15.00,2013-12-28 19:05:00,
2013-12-28 13:07:00,46.1,29.9,29.90,SSW,209,10.0,13.0,53,0.00,,---,0.00,VWS V15.00,2013-12-28 19:07:00,
2013-12-28 13:08:00,46.1,29.9,29.90,SSW,210,8.0,13.0,53,0.00,,---,0.00,VWS V15.00,2013-12-28 19:08:00,
2013-12-28 13:09:00,46.1,29.9,29.90,SSW,205,8.0,13.0,53,0.00,,---,0.00,VWS V15.00,2013-12-28 19:09:00,
2013-12-28 13:10:00,46.1,29.9,29.90,SSW,207,8.0,8.0,53,0.00,,---,0.00,VWS V15.00,2013-12-28 19:10:00,
2013-12-28 13:11:00,46.1,29.9,29.90,SSW,207,9.0,9.0,53,0.00,,---,0.00,VWS V15.00,2013-12-28 19:11:00,
2013-12-28 13:12:00,46.1,29.9,29.90,SSW,207,7.0,9.0,53,0.00,,---,0.00,VWS V15.00,2013-12-28 19:12:00,
2013-12-28 13:13:00,46.1,29.9,29.90,SSW,208,7.0,9.0,53,0.00,,---,0.00,VWS V15.00,2013-12-28 19:13:00,
2013-12-28 13:14:00,46.1,29.9,29.90,SSW,209,7.0,9.0,53,0.00,,---,0.00,VWS V15.00,2013-12-28 19:14:00,
2013-12-28 13:15:00,46.2,30.0,29.89,SSW,207,6.0,9.0,53,0.00,,---,0.00,VWS V15.00,2013-12-28 19:15:00,
2013-12-28 13:16:00,46.2,30.0,29.89,SSW,207,6.0,9.0,53,0.00,,---,0.00,VWS V15.00,2013-12-28 19:16:00,
2013-12-28 13:17:00,46.4,30.2,29.89,SSW,203,7.0,11.0,53,0.00,,---,0.00,VWS V15.00,2013-12-28 19:17:00,
2013-12-28 13:18:00,46.4,30.2,29.89,SSW,202,7.0,11.0,53,0.00,,---,0.00,VWS V15.00,2013-12-28 19:18:00,
2013-12-28 13:19:00,46.4,30.2,29.89,SSW,202,7.0,11.0,53,0.00,,---,0.00,VWS V15.00,2013-12-28 19:19:00,
2013-12-28 13:20:00,46.4,30.2,29.89,SSW,209,8.0,9.0,53,0.00,,---,0.00,VWS V15.00,2013-12-28 19:20:00,
2013-12-28 13:21:00,46.4,30.2,29.89,SSW,207,7.0,11.0,53,0.00,,---,0.00,VWS V15.00,2013-12-28 19:21:00,
2013-12-28 13:22:00,46.4,30.2,29.89,SSW,205,7.0,11.0,53,0.00,,---,0.00,VWS V15.00,2013-12-28 19:22:00,
2013-12-28 13:23:00,46.4,30.2,29.89,SSW,203,9.0,14.0,53,0.00,,---,0.00,VWS V15.00,2013-12-28 19:23:00,
2013-12-28 13:24:00,46.5,30.3,29.89,SSW,205,10.0,14.0,53,0.00,,---,0.00,VWS V15.00,2013-12-28 19:24:00,
2013-12-28 13:25:00,46.5,29.8,29.89,SSW,206,10.0,14.0,52,0.00,,---,0.00,VWS V15.00,2013-12-28 19:25:00,
2013-12-28 13:26:00,46.5,29.8,29.89,SSW,203,11.0,14.0,52,0.00,,---,0.00,VWS V15.00,2013-12-28 19:26:00,
2013-12-28 13:27:00,46.5,29.8,29.89,SSW,199,11.0,14.0,52,0.00,,---,0.00,VWS V15.00,2013-12-28 19:27:00,
2013-12-28 13:28:00,46.5,29.8,29.89,SSW,206,11.0,14.0,52,0.00,,---,0.00,VWS V15.00,2013-12-28 19:28:00,
2013-12-28 13:29:00,46.5,29.8,29.89,SSW,203,11.0,14.0,52,0.00,,---,0.00,VWS V15.00,2013-12-28 19:29:00,
2013-12-28 13:30:00,46.4,30.2,29.87,SSW,208,11.0,11.0,53,0.00,,---,0.00,VWS V15.00,2013-12-28 19:30:00,
2013-12-28 13:31:00,46.4,30.2,29.87,SSW,207,10.0,12.0,53,0.00,,---,0.00,VWS V15.00,2013-12-28 19:31:00,
2013-12-28 13:32:00,46.4,30.2,29.87,SSW,206,11.0,12.0,53,0.00,,---,0.00,VWS V15.00,2013-12-28 19:32:00,
2013-12-28 13:33:00,46.4,30.2,29.87,SSW,200,10.0,12.0,53,0.00,,---,0.00,VWS V15.00,2013-12-28 19:33:00,
2013-12-28 13:34:00,46.5,30.3,29.87,SSW,199,9.0,12.0,53,0.00,,---,0.00,VWS V15.00,2013-12-28 19:34:00,
2013-12-28 13:36:00,46.5,29.8,29.87,SSW,203,11.0,12.0,52,0.00,,---,0.00,VWS V15.00,2013-12-28 19:36:00,
2013-12-28 13:37:00,46.7,30.0,29.87,SSW,194,10.0,12.0,52,0.00,,---,0.00,VWS V15.00,2013-12-28 19:37:00,
2013-12-28 13:38:00,46.8,30.1,29.87,SSW,209,10.0,13.0,52,0.00,,---,0.00,VWS V15.00,2013-12-28 19:38:00,
2013-12-28 13:39:00,46.8,30.1,29.87,SSW,207,12.0,13.0,52,0.00,,---,0.00,VWS V15.00,2013-12-28 19:39:00,
2013-12-28 13:41:00,47.0,30.3,29.87,SSW,207,11.0,11.0,52,0.00,,---,0.00,VWS V15.00,2013-12-28 19:41:00,
2013-12-28 13:42:00,47.0,30.3,29.87,SSW,202,10.0,13.0,52,0.00,,---,0.00,VWS V15.00,2013-12-28 19:42:00,
2013-12-28 13:43:00,47.1,30.4,29.87,South,188,10.0,13.0,52,0.00,,---,0.00,VWS V15.00,2013-12-28 19:43:00,
2013-12-28 13:44:00,47.1,30.4,29.87,South,188,10.0,13.0,52,0.00,,---,0.00,VWS V15.00,2013-12-28 19:44:00,
2013-12-28 13:45:00,47.1,30.4,29.87,SSW,210,7.0,13.0,52,0.00,,---,0.00,VWS V15.00,2013-12-28 19:45:00,
2013-12-28 13:46:00,47.1,30.4,29.87,SSW,199,9.0,13.0,52,0.00,,---,0.00,VWS V15.00,2013-12-28 19:46:00,
2013-12-28 13:47:00,47.3,30.1,29.87,SSW,208,12.0,14.0,51,0.00,,---,0.00,VWS V15.00,2013-12-28 19:47:00,
2013-12-28 13:49:00,47.4,30.2,29.87,SSW,205,10.0,14.0,51,0.00,,---,0.00,VWS V15.00,2013-12-28 19:49:00,
2013-12-28 13:50:00,47.6,30.4,29.87,SSW,207,11.0,14.0,51,0.00,,---,0.00,VWS V15.00,2013-12-28 19:50:00,
2013-12-28 13:51:00,47.6,30.4,29.87,SSW,204,15.0,15.0,51,0.00,,---,0.00,VWS V15.00,2013-12-28 19:51:00,
2013-12-28 13:52:00,47.7,30.0,29.87,SSW,196,10.0,16.0,50,0.00,,---,0.00,VWS V15.00,2013-12-28 19:52:00,
2013-12-28 13:54:00,47.6,29.9,29.87,SSW,205,14.0,17.0,50,0.00,,---,0.00,VWS V15.00,2013-12-28 19:54:00,
2013-12-28 13:55:00,47.6,29.9,29.87,SSW,209,13.0,17.0,50,0.00,,---,0.00,VWS V15.00,2013-12-28 19:55:00,
2013-12-28 13:56:00,47.4,29.7,29.87,SSW,209,13.0,17.0,50,0.00,,---,0.00,VWS V15.00,2013-12-28 19:56:00,
2013-12-28 13:58:00,47.4,29.7,29.87,SSW,202,13.0,17.0,50,0.00,,---,0.00,VWS V15.00,2013-12-28 19:58:00,
2013-12-28 13:59:00,47.4,29.7,29.87,SSW,203,11.0,17.0,50,0.00,,---,0.00,VWS V15.00,2013-12-28 19:59:00,
2013-12-28 14:00:00,47.4,30.2,29.86,SSW,205,11.0,17.0,51,0.00,,---,0.00,VWS V15.00,2013-12-28 20:00:00,
2013-12-28 14:01:00,47.4,30.2,29.86,SSW,207,10.0,11.0,51,0.00,,---,0.00,VWS V15.00,2013-12-28 20:01:00,
2013-12-28 14:03:00,47.4,30.2,29.86,SSW,198,7.0,13.0,51,0.00,,---,0.00,VWS V15.00,2013-12-28 20:03:00,
2013-12-28 14:04:00,47.4,30.2,29.86,SSW,203,9.0,15.0,51,0.00,,---,0.00,VWS V15.00,2013-12-28 20:04:00,
2013-12-28 14:05:00,47.6,30.4,29.86,SSW,207,9.0,15.0,51,0.00,,---,0.00,VWS V15.00,2013-12-28 20:05:00,
2013-12-28 14:06:00,47.6,30.4,29.86,SSW,194,9.0,15.0,51,0.00,,---,0.00,VWS V15.00,2013-12-28 20:06:00,
2013-12-28 14:07:00,47.6,30.4,29.86,SSW,206,11.0,15.0,51,0.00,,---,0.00,VWS V15.00,2013-12-28 20:07:00,
2013-12-28 14:08:00,47.7,30.5,29.86,SSW,193,9.0,15.0,51,0.00,,---,0.00,VWS V15.00,2013-12-28 20:08:00,
2013-12-28 14:09:00,47.7,30.5,29.86,SSW,193,11.0,15.0,51,0.00,,---,0.00,VWS V15.00,2013-12-28 20:09:00,
2013-12-28 14:10:00,47.7,30.5,29.86,SSW,201,12.0,15.0,51,0.00,,---,0.00,VWS V15.00,2013-12-28 20:10:00,
2013-12-28 14:11:00,47.7,30.5,29.86,SSW,196,10.0,12.0,51,0.00,,---,0.00,VWS V15.00,2013-12-28 20:11:00,
2013-12-28 14:12:00,47.7,30.5,29.86,SSW,196,10.0,13.0,51,0.00,,---,0.00,VWS V15.00,2013-12-28 20:12:00,
2013-12-28 14:13:00,47.7,30.5,29.86,SSW,205,11.0,13.0,51,0.00,,---,0.00,VWS V15.00,2013-12-28 20:13:00,
2013-12-28 14:14:00,47.7,30.5,29.86,SSW,206,10.0,13.0,51,0.00,,---,0.00,VWS V15.00,2013-12-28 20:14:00,
2013-12-28 14:15:00,47.7,30.5,29.86,SSW,203,10.0,13.0,51,0.00,,---,0.00,VWS V15.00,2013-12-28 20:15:00,
2013-12-28 14:17:00,47.6,30.4,29.86,SSW,200,11.0,13.0,51,0.00,,---,0.00,VWS V15.00,2013-12-28 20:17:00,
2013-12-28 14:18:00,47.6,30.9,29.86,SSW,206,12.0,13.0,52,0.00,,---,0.00,VWS V15.00,2013-12-28 20:18:00,
2013-12-28 14:19:00,47.6,30.4,29.86,SSW,202,11.0,14.0,51,0.00,,---,0.00,VWS V15.00,2013-12-28 20:19:00,
2013-12-28 14:20:00,47.6,31.3,29.86,SSW,200,10.0,14.0,53,0.00,,---,0.00,VWS V15.00,2013-12-28 20:20:00,
2013-12-28 14:22:00,47.6,30.9,29.86,SSW,212,12.0,15.0,52,0.00,,---,0.00,VWS V15.00,2013-12-28 20:22:00,
2013-12-28 14:23:00,47.6,30.4,29.86,SSW,208,14.0,15.0,51,0.00,,---,0.00,VWS V15.00,2013-12-28 20:23:00,
2013-12-28 14:25:00,47.7,30.5,29.86,SSW,208,11.0,15.0,51,0.00,,---,0.00,VWS V15.00,2013-12-28 20:25:00,
2013-12-28 14:27:00,47.6,30.9,29.86,SSW,202,13.0,15.0,52,0.00,,---,0.00,VWS V15.00,2013-12-28 20:27:00,
2013-12-28 14:28:00,47.6,30.9,29.86,South,183,11.0,15.0,52,0.00,,---,0.00,VWS V15.00,2013-12-28 20:28:00,
2013-12-28 14:30:00,47.6,30.4,29.84,SSW,211,13.0,15.0,51,0.00,,---,0.00,VWS V15.00,2013-12-28 20:30:00,
2013-12-28 14:32:00,47.7,30.5,29.84,SSW,198,10.0,14.0,51,0.00,,---,0.00,VWS V15.00,2013-12-28 20:32:00,
2013-12-28 14:33:00,47.7,30.5,29.84,SSW,198,11.0,14.0,51,0.00,,---,0.00,VWS V15.00,2013-12-28 20:33:00,
2013-12-28 14:35:00,47.7,31.0,29.84,SSW,207,14.0,14.0,52,0.00,,---,0.00,VWS V15.00,2013-12-28 20:35:00,
2013-12-28 14:37:00,47.7,30.5,29.84,SSW,200,9.0,14.0,51,0.00,,---,0.00,VWS V15.00,2013-12-28 20:37:00,
2013-12-28 14:38:00,47.7,31.0,29.84,SSW,195,10.0,14.0,52,0.00,,---,0.00,VWS V15.00,2013-12-28 20:38:00,
2013-12-28 14:40:00,47.7,31.0,29.84,South,183,12.0,14.0,52,0.00,,---,0.00,VWS V15.00,2013-12-28 20:40:00,
2013-12-28 14:42:00,47.9,31.1,29.84,South,184,10.0,12.0,52,0.00,,---,0.00,VWS V15.00,2013-12-28 20:42:00,
2013-12-28 14:43:00,47.9,31.1,29.84,SSW,196,12.0,13.0,52,0.00,,---,0.00,VWS V15.00,2013-12-28 20:43:00,
2013-12-28 14:45:00,47.9,31.1,29.84,South,178,12.0,13.0,52,0.00,,---,0.00,VWS V15.00,2013-12-28 20:45:00,
2013-12-28 14:46:00,48.0,31.2,29.84,South,186,9.0,13.0,52,0.00,,---,0.00,VWS V15.00,2013-12-28 20:46:00,
2013-12-28 14:47:00,48.0,31.2,29.84,South,188,12.0,14.0,52,0.00,,---,0.00,VWS V15.00,2013-12-28 20:47:00,
2013-12-28 14:48:00,48.0,31.2,29.84,SSW,204,9.0,14.0,52,0.00,,---,0.00,VWS V15.00,2013-12-28 20:48:00,
2013-12-28 14:49:00,48.2,30.9,29.84,SSE,163,8.0,14.0,51,0.00,,---,0.00,VWS V15.00,2013-12-28 20:49:00,
2013-12-28 14:50:00,48.2,30.0,29.84,South,176,10.0,14.0,49,0.00,,---,0.00,VWS V15.00,2013-12-28 20:50:00,
2013-12-28 14:51:00,48.2,30.9,29.84,SSW,195,13.0,13.0,51,0.00,,---,0.00,VWS V15.00,2013-12-28 20:51:00,
2013-12-28 14:52:00,48.3,30.5,29.84,SSW,202,13.0,14.0,50,0.00,,---,0.00,VWS V15.00,2013-12-28 20:52:00,
2013-12-28 14:53:00,48.5,30.7,29.84,SSW,196,13.0,15.0,50,0.00,,---,0.00,VWS V15.00,2013-12-28 20:53:00,
2013-12-28 14:54:00,48.5,30.7,29.84,SSW,203,15.0,16.0,50,0.00,,---,0.00,VWS V15.00,2013-12-28 20:54:00,
2013-12-28 14:55:00,48.6,30.3,29.84,SSW,200,14.0,16.0,49,0.00,,---,0.00,VWS V15.00,2013-12-28 20:55:00,
2013-12-28 14:56:00,48.6,30.3,29.84,SSW,210,11.0,16.0,49,0.00,,---,0.00,VWS V15.00,2013-12-28 20:56:00,
2013-12-28 14:57:00,48.5,30.7,29.84,SSW,200,13.0,16.0,50,0.00,,---,0.00,VWS V15.00,2013-12-28 20:57:00,
2013-12-28 14:59:00,48.2,30.5,29.84,South,177,10.0,16.0,50,0.00,,---,0.00,VWS V15.00,2013-12-28 20:59:00,
2013-12-28 15:00:00,48.0,30.8,29.84,SSW,209,12.0,16.0,51,0.00,,---,0.00,VWS V15.00,2013-12-28 21:00:00,
2013-12-28 15:01:00,47.9,30.7,29.84,SSW,200,12.0,13.0,51,0.00,,---,0.00,VWS V15.00,2013-12-28 21:01:00,
2013-12-28 15:02:00,47.9,30.7,29.84,SSW,199,11.0,13.0,51,0.00,,---,0.00,VWS V15.00,2013-12-28 21:02:00,
2013-12-28 15:04:00,47.7,31.0,29.84,SSW,205,10.0,13.0,52,0.00,,---,0.00,VWS V15.00,2013-12-28 21:04:00,
2013-12-28 15:05:00,47.7,31.0,29.84,SSW,208,11.0,13.0,52,0.00,,---,0.00,VWS V15.00,2013-12-28 21:05:00,
2013-12-28 15:06:00,47.7,31.0,29.84,SSW,205,9.0,13.0,52,0.00,,---,0.00,VWS V15.00,2013-12-28 21:06:00,
2013-12-28 15:07:00,47.7,31.0,29.84,SSW,207,7.0,13.0,52,0.00,,---,0.00,VWS V15.00,2013-12-28 21:07:00,
2013-12-28 15:09:00,47.7,31.0,29.84,SSW,200,9.0,13.0,52,0.00,,---,0.00,VWS V15.00,2013-12-28 21:09:00,
2013-12-28 15:10:00,47.7,31.0,29.84,SSW,193,10.0,13.0,52,0.00,,---,0.00,VWS V15.00,2013-12-28 21:10:00,
2013-12-28 15:12:00,47.9,31.1,29.84,SSW,195,7.0,9.0,52,0.00,,---,0.00,VWS V15.00,2013-12-28 21:12:00,
2013-12-28 15:14:00,48.0,30.8,29.84,South,190,9.0,10.0,51,0.00,,---,0.00,VWS V15.00,2013-12-28 21:14:00,
2013-12-28 15:15:00,48.3,31.0,29.83,South,179,9.0,13.0,51,0.00,,---,0.00,VWS V15.00,2013-12-28 21:15:00,
2013-12-28 15:17:00,48.6,30.8,29.83,SSW,198,10.0,13.0,50,0.00,,---,0.00,VWS V15.00,2013-12-28 21:17:00,
2013-12-28 15:19:00,48.9,30.6,29.83,South,181,10.0,13.0,49,0.00,,---,0.00,VWS V15.00,2013-12-28 21:19:00,
2013-12-28 15:20:00,48.9,30.6,29.83,SSW,194,11.0,13.0,49,0.00,,---,0.00,VWS V15.00,2013-12-28 21:20:00,
2013-12-28 15:22:00,48.9,30.6,29.83,South,188,9.0,11.0,49,0.00,,---,0.00,VWS V15.00,2013-12-28 21:22:00,
2013-12-28 15:24:00,48.9,31.1,29.83,South,191,6.0,11.0,50,0.00,,---,0.00,VWS V15.00,2013-12-28 21:24:00,
2013-12-28 15:25:00,48.9,31.1,29.83,South,173,5.0,11.0,50,0.00,,---,0.00,VWS V15.00,2013-12-28 21:25:00,
2013-12-28 15:27:00,49.1,31.3,29.83,SSW,199,7.0,11.0,50,0.00,,---,0.00,VWS V15.00,2013-12-28 21:27:00,
2013-12-28 15:29:00,49.4,30.5,29.83,SSE,163,7.0,13.0,48,0.00,,---,0.00,VWS V15.00,2013-12-28 21:29:00,
2013-12-28 15:30:00,49.6,30.7,29.83,South,170,7.0,13.0,48,0.00,,---,0.00,VWS V15.00,2013-12-28 21:30:00,
2013-12-28 15:32:00,49.8,30.9,29.83,South,186,9.0,13.0,48,0.00,,---,0.00,VWS V15.00,2013-12-28 21:32:00,
2013-12-28 15:34:00,49.8,30.4,29.83,South,181,7.0,14.0,47,0.00,,---,0.00,VWS V15.00,2013-12-28 21:34:00,
2013-12-28 15:35:00,49.8,30.4,29.83,South,178,12.0,14.0,47,0.00,,---,0.00,VWS V15.00,2013-12-28 21:35:00,
2013-12-28 15:37:00,49.8,30.4,29.83,SSW,196,9.0,14.0,47,0.00,,---,0.00,VWS V15.00,2013-12-28 21:37:00,
2013-12-28 15:38:00,49.8,30.4,29.83,South,175,9.0,14.0,47,0.00,,---,0.00,VWS V15.00,2013-12-28 21:38:00,
2013-12-28 15:39:00,49.6,30.2,29.83,SSW,198,9.0,14.0,47,0.00,,---,0.00,VWS V15.00,2013-12-28 21:39:00,
2013-12-28 15:40:00,49.5,30.6,29.83,SSW,203,6.0,14.0,48,0.00,,---,0.00,VWS V15.00,2013-12-28 21:40:00,
2013-12-28 15:42:00,49.4,30.5,29.83,SSW,201,7.0,10.0,48,0.00,,---,0.00,VWS V15.00,2013-12-28 21:42:00,
2013-12-28 15:43:00,49.4,30.5,29.83,South,180,4.0,10.0,48,0.00,,---,0.00,VWS V15.00,2013-12-28 21:43:00,
2013-12-28 15:44:00,49.4,30.5,29.83,SSW,207,6.0,10.0,48,0.00,,---,0.00,VWS V15.00,2013-12-28 21:44:00,
2013-12-28 15:45:00,49.4,30.5,29.83,South,170,5.0,11.0,48,0.00,,---,0.00,VWS V15.00,2013-12-28 21:45:00,
2013-12-28 15:47:00,49.4,30.5,29.83,South,191,4.0,11.0,48,0.00,,---,0.00,VWS V15.00,2013-12-28 21:47:00,
2013-12-28 15:48:00,49.2,30.9,29.83,South,185,5.0,11.0,49,0.00,,---,0.00,VWS V15.00,2013-12-28 21:48:00,
2013-12-28 15:49:00,49.2,30.9,29.83,SSW,198,5.0,11.0,49,0.00,,---,0.00,VWS V15.00,2013-12-28 21:49:00,
2013-12-28 15:50:00,49.2,30.9,29.83,South,189,7.0,11.0,49,0.00,,---,0.00,VWS V15.00,2013-12-28 21:50:00,
2013-12-28 15:52:00,49.1,30.8,29.83,SSW,193,6.0,9.0,49,0.00,,---,0.00,VWS V15.00,2013-12-28 21:52:00,
2013-12-28 15:53:00,49.1,30.8,29.83,SSW,192,6.0,9.0,49,0.00,,---,0.00,VWS V15.00,2013-12-28 21:53:00,
2013-12-28 15:54:00,48.9,31.1,29.83,SSW,193,5.0,9.0,50,0.00,,---,0.00,VWS V15.00,2013-12-28 21:54:00,
2013-12-28 15:55:00,48.9,31.1,29.83,SSW,205,7.0,9.0,50,0.00,,---,0.00,VWS V15.00,2013-12-28 21:55:00,
2013-12-28 15:58:00,48.9,31.1,29.83,SSW,204,6.0,9.0,50,0.00,,---,0.00,VWS V15.00,2013-12-28 21:58:00,
2013-12-28 15:59:00,48.8,31.0,29.83,South,173,7.0,10.0,50,0.00,,---,0.00,VWS V15.00,2013-12-28 21:59:00,
2013-12-28 16:00:00,48.9,31.1,29.83,SSW,195,7.0,10.0,50,0.00,,---,0.00,VWS V15.00,2013-12-28 22:00:00,
2013-12-28 16:03:00,48.9,31.1,29.83,SSW,200,7.0,7.0,50,0.00,,---,0.00,VWS V15.00,2013-12-28 22:03:00,
2013-12-28 16:04:00,48.9,31.1,29.83,SSW,199,7.0,7.0,50,0.00,,---,0.00,VWS V15.00,2013-12-28 22:04:00,
2013-12-28 16:05:00,48.9,31.1,29.83,SSW,200,5.0,7.0,50,0.00,,---,0.00,VWS V15.00,2013-12-28 22:05:00,
2013-12-28 16:08:00,48.9,31.1,29.83,SSW,196,4.0,7.0,50,0.00,,---,0.00,VWS V15.00,2013-12-28 22:08:00,
2013-12-28 16:09:00,48.9,31.1,29.83,SSW,196,5.0,7.0,50,0.00,,---,0.00,VWS V15.00,2013-12-28 22:09:00,
2013-12-28 16:10:00,48.9,31.1,29.83,SSW,196,3.0,7.0,50,0.00,,---,0.00,VWS V15.00,2013-12-28 22:10:00,
2013-12-28 16:13:00,48.9,31.1,29.83,South,179,4.0,6.0,50,0.00,,---,0.00,VWS V15.00,2013-12-28 22:13:00,
2013-12-28 16:14:00,49.1,31.3,29.83,SSW,192,2.0,6.0,50,0.00,,---,0.00,VWS V15.00,2013-12-28 22:14:00,
2013-12-28 16:15:00,49.1,31.3,29.83,South,188,4.0,6.0,50,0.00,,---,0.00,VWS V15.00,2013-12-28 22:15:00,
2013-12-28 16:18:00,49.1,31.3,29.83,SSW,199,6.0,7.0,50,0.00,,---,0.00,VWS V15.00,2013-12-28 22:18:00,
2013-12-28 16:19:00,49.1,31.3,29.83,SSW,200,6.0,9.0,50,0.00,,---,0.00,VWS V15.00,2013-12-28 22:19:00,
2013-12-28 16:20:00,49.1,31.3,29.83,SSW,198,9.0,10.0,50,0.00,,---,0.00,VWS V15.00,2013-12-28 22:20:00,
2013-12-28 16:23:00,48.8,31.0,29.83,SSW,201,8.0,11.0,50,0.00,,---,0.00,VWS V15.00,2013-12-28 22:23:00,
2013-12-28 16:24:00,48.6,30.8,29.83,SSW,199,8.0,11.0,50,0.00,,---,0.00,VWS V15.00,2013-12-28 22:24:00,
2013-12-28 16:25:00,48.5,31.2,29.83,SSW,198,8.0,11.0,51,0.00,,---,0.00,VWS V15.00,2013-12-28 22:25:00,
2013-12-28 16:28:00,48.2,30.9,29.83,South,180,10.0,11.0,51,0.00,,---,0.00,VWS V15.00,2013-12-28 22:28:00,
2013-12-28 16:29:00,48.0,30.8,29.83,SSW,205,10.0,11.0,51,0.00,,---,0.00,VWS V15.00,2013-12-28 22:29:00,
2013-12-28 16:30:00,48.0,30.8,29.83,SSW,195,10.0,11.0,51,0.00,,---,0.00,VWS V15.00,2013-12-28 22:30:00,
2013-12-28 16:33:00,47.7,30.5,29.83,SSW,198,9.0,12.0,51,0.00,,---,0.00,VWS V15.00,2013-12-28 22:33:00,
2013-12-28 16:34:00,47.6,30.9,29.83,SSW,195,7.0,12.0,52,0.00,,---,0.00,VWS V15.00,2013-12-28 22:34:00,
2013-12-28 16:35:00,47.6,30.9,29.83,SSW,203,8.0,12.0,52,0.00,,---,0.00,VWS V15.00,2013-12-28 22:35:00,
2013-12-28 16:38:00,47.3,31.0,29.83,SSW,209,5.0,12.0,53,0.00,,---,0.00,VWS V15.00,2013-12-28 22:38:00,
2013-12-28 16:39:00,47.3,31.0,29.83,SSW,209,6.0,12.0,53,0.00,,---,0.00,VWS V15.00,2013-12-28 22:39:00,
2013-12-28 16:40:00,47.3,31.0,29.83,SSW,211,6.0,12.0,53,0.00,,---,0.00,VWS V15.00,2013-12-28 22:40:00,
2013-12-28 16:41:00,47.3,31.0,29.83,SSW,211,5.0,5.0,53,0.00,,---,0.00,VWS V15.00,2013-12-28 22:41:00,
2013-12-28 16:43:00,47.1,31.3,29.83,SSW,213,3.0,6.0,54,0.00,,---,0.00,VWS V15.00,2013-12-28 22:43:00,
2013-12-28 16:44:00,47.0,31.2,29.83,SSW,213,4.0,6.0,54,0.00,,---,0.00,VWS V15.00,2013-12-28 22:44:00,
2013-12-28 16:45:00,47.0,31.2,29.84,SW,219,3.0,6.0,54,0.00,,---,0.00,VWS V15.00,2013-12-28 22:45:00,
2013-12-28 16:46:00,46.8,31.0,29.84,SW,218,3.0,6.0,54,0.00,,---,0.00,VWS V15.00,2013-12-28 22:46:00,
2013-12-28 16:48:00,46.7,31.4,29.84,SW,232,4.0,6.0,55,0.00,,---,0.00,VWS V15.00,2013-12-28 22:48:00,
2013-12-28 16:49:00,46.7,31.4,29.84,SW,232,3.0,6.0,55,0.00,,---,0.00,VWS V15.00,2013-12-28 22:49:00,
2013-12-28 16:50:00,46.5,31.2,29.84,SW,233,3.0,6.0,55,0.00,,---,0.00,VWS V15.00,2013-12-28 22:50:00,
2013-12-28 16:51:00,46.5,30.8,29.84,SW,233,4.0,4.0,54,0.00,,---,0.00,VWS V15.00,2013-12-28 22:51:00,
2013-12-28 16:53:00,46.5,30.8,29.84,SW,233,4.0,4.0,54,0.00,,---,0.00,VWS V15.00,2013-12-28 22:53:00,
2013-12-28 16:54:00,46.5,30.8,29.84,SW,233,4.0,4.0,54,0.00,,---,0.00,VWS V15.00,2013-12-28 22:54:00,
2013-12-28 16:55:00,46.7,31.0,29.84,SW,233,4.0,4.0,54,0.00,,---,0.00,VWS V15.00,2013-12-28 22:55:00,
2013-12-28 16:56:00,46.7,31.0,29.84,WSW,239,4.0,4.0,54,0.00,,---,0.00,VWS V15.00,2013-12-28 22:56:00,
2013-12-28 16:58:00,46.7,31.0,29.84,WSW,239,3.0,5.0,54,0.00,,---,0.00,VWS V15.00,2013-12-28 22:58:00,
2013-12-28 16:59:00,46.8,31.0,29.84,WSW,239,3.0,5.0,54,0.00,,---,0.00,VWS V15.00,2013-12-28 22:59:00,
2013-12-28 17:01:00,46.8,31.0,29.84,SW,228,2.0,3.0,54,0.00,,---,0.00,VWS V15.00,2013-12-28 23:01:00,
2013-12-28 17:03:00,47.0,31.2,29.84,SW,229,3.0,4.0,54,0.00,,---,0.00,VWS V15.00,2013-12-28 23:03:00,
2013-12-28 17:04:00,47.0,31.2,29.84,SW,229,3.0,4.0,54,0.00,,---,0.00,VWS V15.00,2013-12-28 23:04:00,
2013-12-28 17:05:00,47.0,31.2,29.84,SW,228,4.0,4.0,54,0.00,,---,0.00,VWS V15.00,2013-12-28 23:05:00,
2013-12-28 17:06:00,47.0,31.2,29.84,SW,225,4.0,5.0,54,0.00,,---,0.00,VWS V15.00,2013-12-28 23:06:00,
2013-12-28 17:09:00,46.8,31.0,29.84,SSW,213,5.0,6.0,54,0.00,,---,0.00,VWS V15.00,2013-12-28 23:09:00,
2013-12-28 17:10:00,46.8,31.0,29.84,SSW,213,5.0,6.0,54,0.00,,---,0.00,VWS V15.00,2013-12-28 23:10:00,
2013-12-28 17:11:00,46.8,31.0,29.84,SSW,209,5.0,6.0,54,0.00,,---,0.00,VWS V15.00,2013-12-28 23:11:00,
2013-12-28 17:14:00,46.7,31.4,29.84,SSW,206,4.0,6.0,55,0.00,,---,0.00,VWS V15.00,2013-12-28 23:14:00,
2013-12-28 17:15:00,46.5,31.2,29.83,SSW,206,3.0,6.0,55,0.00,,---,0.00,VWS V15.00,2013-12-28 23:15:00,
2013-12-28 17:16:00,46.4,31.1,29.83,SSW,205,5.0,6.0,55,0.00,,---,0.00,VWS V15.00,2013-12-28 23:16:00,
2013-12-28 17:19:00,46.2,31.4,29.83,SSW,206,4.0,6.0,56,0.00,,---,0.00,VWS V15.00,2013-12-28 23:19:00,
2013-12-28 17:20:00,46.1,31.3,29.83,SSW,212,4.0,6.0,56,0.00,,---,0.00,VWS V15.00,2013-12-28 23:20:00,
2013-12-28 17:21:00,46.0,31.2,29.83,SW,215,3.0,4.0,56,0.00,,---,0.00,VWS V15.00,2013-12-28 23:21:00,
2013-12-28 17:24:00,45.7,31.4,29.83,SW,215,5.0,5.0,57,0.00,,---,0.00,VWS V15.00,2013-12-28 23:24:00,
2013-12-28 17:25:00,45.7,31.4,29.83,SW,214,4.0,5.0,57,0.00,,---,0.00,VWS V15.00,2013-12-28 23:25:00,
2013-12-28 17:26:00,45.5,31.2,29.83,SW,225,3.0,5.0,57,0.00,,---,0.00,VWS V15.00,2013-12-28 23:26:00,
2013-12-28 17:29:00,45.4,31.5,29.83,SW,227,5.0,5.0,58,0.00,,---,0.00,VWS V15.00,2013-12-28 23:29:00,
2013-12-28 17:30:00,45.4,31.5,29.84,SW,227,4.0,5.0,58,0.00,,---,0.00,VWS V15.00,2013-12-28 23:30:00,
2013-12-28 17:31:00,45.4,31.5,29.84,SW,221,6.0,6.0,58,0.00,,---,0.00,VWS V15.00,2013-12-28 23:31:00,
2013-12-28 17:32:00,45.4,31.5,29.84,SW,222,5.0,6.0,58,0.00,,---,0.00,VWS V15.00,2013-12-28 23:32:00,
2013-12-28 17:34:00,45.4,31.5,29.84,SW,217,9.0,10.0,58,0.00,,---,0.00,VWS V15.00,2013-12-28 23:34:00,
2013-12-28 17:35:00,45.5,31.6,29.84,SW,215,9.0,10.0,58,0.00,,---,0.00,VWS V15.00,2013-12-28 23:35:00,
2013-12-28 17:36:00,45.5,31.6,29.84,SW,215,7.0,10.0,58,0.00,,---,0.00,VWS V15.00,2013-12-28 23:36:00,
2013-12-28 17:37:00,45.5,31.6,29.84,SW,216,9.0,10.0,58,0.00,,---,0.00,VWS V15.00,2013-12-28 23:37:00,
2013-12-28 17:39:00,45.4,31.5,29.84,SW,218,7.0,10.0,58,0.00,,---,0.00,VWS V15.00,2013-12-28 23:39:00,
2013-12-28 17:40:00,45.4,31.5,29.84,SW,215,8.0,11.0,58,0.00,,---,0.00,VWS V15.00,2013-12-28 23:40:00,
2013-12-28 17:41:00,45.1,31.6,29.84,SSW,213,8.0,9.0,59,0.00,,---,0.00,VWS V15.00,2013-12-28 23:41:00,
2013-12-28 17:42:00,44.9,31.5,29.84,SSW,209,9.0,11.0,59,0.00,,---,0.00,VWS V15.00,2013-12-28 23:42:00,
2013-12-28 17:44:00,44.6,31.6,29.84,SSW,209,8.0,11.0,60,0.00,,---,0.00,VWS V15.00,2013-12-28 23:44:00,
2013-12-28 17:45:00,44.5,31.5,29.84,SW,217,7.0,11.0,60,0.00,,---,0.00,VWS V15.00,2013-12-28 23:45:00,
2013-12-28 17:46:00,44.2,31.2,29.84,SW,217,7.0,11.0,60,0.00,,---,0.00,VWS V15.00,2013-12-28 23:46:00,
2013-12-28 17:47:00,44.1,31.5,29.84,SW,217,5.0,11.0,61,0.00,,---,0.00,VWS V15.00,2013-12-28 23:47:00,
2013-12-28 17:49:00,43.8,31.2,29.84,SW,228,4.0,11.0,61,0.00,,---,0.00,VWS V15.00,2013-12-28 23:49:00,
2013-12-28 17:50:00,43.8,31.6,29.84,SW,229,4.0,11.0,62,0.00,,---,0.00,VWS V15.00,2013-12-28 23:50:00,
2013-12-28 17:51:00,43.8,31.6,29.84,SW,229,5.0,5.0,62,0.00,,---,0.00,VWS V15.00,2013-12-28 23:51:00,
2013-12-28 17:52:00,43.6,31.5,29.84,SW,236,4.0,5.0,62,0.00,,---,0.00,VWS V15.00,2013-12-28 23:52:00,
2013-12-28 17:54:00,43.5,31.8,29.84,WSW,237,4.0,5.0,63,0.00,,---,0.00,VWS V15.00,2013-12-28 23:54:00,
2013-12-28 17:55:00,43.5,31.8,29.84,WSW,238,4.0,5.0,63,0.00,,---,0.00,VWS V15.00,2013-12-28 23:55:00,
2013-12-28 17:56:00,43.5,31.8,29.84,WSW,238,4.0,5.0,63,0.00,,---,0.00,VWS V15.00,2013-12-28 23:56:00,
2013-12-28 17:57:00,43.3,31.6,29.84,WSW,241,4.0,5.0,63,0.00,,---,0.00,VWS V15.00,2013-12-28 23:57:00,
2013-12-28 17:59:00,43.5,31.8,29.84,WSW,242,4.0,5.0,63,0.00,,---,0.00,VWS V15.00,2013-12-28 23:59:00,
2013-12-28 18:00:00,43.3,31.6,29.85,WSW,242,3.0,5.0,63,0.00,,---,0.00,VWS V15.00,2013-12-29 00:00:00,
2013-12-28 18:01:00,43.3,31.6,29.85,WSW,242,5.0,5.0,63,0.00,,---,0.00,VWS V15.00,2013-12-29 00:01:00,
2013-12-28 18:02:00,43.3,31.6,29.85,WSW,242,5.0,5.0,63,0.00,,---,0.00,VWS V15.00,2013-12-29 00:02:00,
2013-12-28 18:04:00,43.3,31.6,29.85,WSW,242,3.0,5.0,63,0.00,,---,0.00,VWS V15.00,2013-12-29 00:04:00,
2013-12-28 18:05:00,43.3,32.0,29.85,WSW,242,3.0,5.0,64,0.00,,---,0.00,VWS V15.00,2013-12-29 00:05:00,
2013-12-28 18:06:00,43.3,32.0,29.85,WSW,242,3.0,5.0,64,0.00,,---,0.00,VWS V15.00,2013-12-29 00:06:00,
2013-12-28 18:07:00,43.3,32.0,29.85,WSW,242,3.0,5.0,64,0.00,,---,0.00,VWS V15.00,2013-12-29 00:07:00,
2013-12-28 18:09:00,43.3,31.6,29.85,WSW,242,3.0,5.0,63,0.00,,---,0.00,VWS V15.00,2013-12-29 00:09:00,
2013-12-28 18:10:00,43.5,32.2,29.85,WSW,242,3.0,5.0,64,0.00,,---,0.00,VWS V15.00,2013-12-29 00:10:00,
2013-12-28 18:11:00,43.5,32.2,29.85,WSW,242,4.0,4.0,64,0.00,,---,0.00,VWS V15.00,2013-12-29 00:11:00,
2013-12-28 18:13:00,43.6,31.9,29.85,SW,234,5.0,5.0,63,0.00,,---,0.00,VWS V15.00,2013-12-29 00:13:00,
2013-12-28 18:14:00,43.8,32.0,29.85,SW,214,5.0,7.0,63,0.00,,---,0.00,VWS V15.00,2013-12-29 00:14:00,
2013-12-28 18:15:00,43.9,32.1,29.85,SW,219,5.0,7.0,63,0.00,,---,0.00,VWS V15.00,2013-12-29 00:15:00,
2013-12-28 18:16:00,44.1,31.9,29.85,SW,217,4.0,7.0,62,0.00,,---,0.00,VWS V15.00,2013-12-29 00:16:00,
2013-12-28 18:18:00,44.1,31.9,29.85,SW,217,5.0,7.0,62,0.00,,---,0.00,VWS V15.00,2013-12-29 00:18:00,
2013-12-28 18:19:00,44.1,31.9,29.85,SW,217,5.0,7.0,62,0.00,,---,0.00,VWS V15.00,2013-12-29 00:19:00,
2013-12-28 18:20:00,44.1,31.9,29.85,SW,215,4.0,5.0,62,0.00,,---,0.00,VWS V15.00,2013-12-29 00:20:00,
2013-12-28 18:21:00,44.1,31.9,29.85,SW,215,5.0,5.0,62,0.00,,---,0.00,VWS V15.00,2013-12-29 00:21:00,
2013-12-28 18:23:00,44.1,32.3,29.85,SW,215,6.0,7.0,63,0.00,,---,0.00,VWS V15.00,2013-12-29 00:23:00,
2013-12-28 18:24:00,44.1,32.3,29.85,SW,214,6.0,9.0,63,0.00,,---,0.00,VWS V15.00,2013-12-29 00:24:00,
2013-12-28 18:25:00,44.1,32.3,29.85,SSW,213,8.0,9.0,63,0.00,,---,0.00,VWS V15.00,2013-12-29 00:25:00,
2013-12-28 18:26:00,44.1,32.3,29.85,SSW,212,6.0,9.0,63,0.00,,---,0.00,VWS V15.00,2013-12-29 00:26:00,
2013-12-28 18:27:00,43.9,32.1,29.85,SSW,212,5.0,9.0,63,0.00,,---,0.00,VWS V15.00,2013-12-29 00:27:00,
2013-12-28 18:28:00,43.8,32.0,29.85,SSW,211,4.0,9.0,63,0.00,,---,0.00,VWS V15.00,2013-12-29 00:28:00,
2013-12-28 18:29:00,43.8,32.0,29.85,SSW,211,4.0,9.0,63,0.00,,---,0.00,VWS V15.00,2013-12-29 00:29:00,
2013-12-28 18:30:00,43.6,32.2,29.85,SSW,211,4.0,9.0,64,0.00,,---,0.00,VWS V15.00,2013-12-29 00:30:00,
2013-12-28 18:31:00,43.6,32.2,29.85,SSW,211,4.0,4.0,64,0.00,,---,0.00,VWS V15.00,2013-12-29 00:31:00,
2013-12-28 18:32:00,43.5,32.2,29.85,SSW,211,4.0,5.0,64,0.00,,---,0.00,VWS V15.00,2013-12-29 00:32:00,
2013-12-28 18:33:00,43.5,32.2,29.85,SSW,211,3.0,5.0,64,0.00,,---,0.00,VWS V15.00,2013-12-29 00:33:00,
2013-12-28 18:34:00,43.3,32.0,29.85,SSW,211,2.0,5.0,64,0.00,,---,0.00,VWS V15.00,2013-12-29 00:34:00,
2013-12-28 18:35:00,43.3,32.0,29.85,SSW,211,2.0,5.0,64,0.00,,---,0.00,VWS V15.00,2013-12-29 00:35:00,
2013-12-28 18:36:00,43.3,32.0,29.85,SSW,211,2.0,5.0,64,0.00,,---,0.00,VWS V15.00,2013-12-29 00:36:00,
2013-12-28 18:37:00,43.2,32.2,29.85,SSW,211,2.0,5.0,65,0.00,,---,0.00,VWS V15.00,2013-12-29 00:37:00,
2013-12-28 18:38:00,43.1,32.2,29.85,SSW,211,3.0,5.0,65,0.00,,---,0.00,VWS V15.00,2013-12-29 00:38:00,
2013-12-28 18:39:00,43.1,32.2,29.85,SSW,211,2.0,5.0,65,0.00,,---,0.00,VWS V15.00,2013-12-29 00:39:00,
2013-12-28 18:41:00,42.9,32.0,29.85,SSW,211,3.0,3.0,65,0.00,,---,0.00,VWS V15.00,2013-12-29 00:41:00,
2013-12-28 18:42:00,42.8,31.9,29.85,SSW,211,3.0,3.0,65,0.00,,---,0.00,VWS V15.00,2013-12-29 00:42:00,
2013-12-28 18:44:00,42.6,31.7,29.85,SSW,211,4.0,5.0,65,0.00,,---,0.00,VWS V15.00,2013-12-29 00:44:00,
2013-12-28 18:46:00,42.3,31.8,29.85,SSW,211,4.0,5.0,66,0.00,,---,0.00,VWS V15.00,2013-12-29 00:46:00,
2013-12-28 18:47:00,42.2,31.7,29.85,SSW,211,5.0,5.0,66,0.00,,---,0.00,VWS V15.00,2013-12-29 00:47:00,
2013-12-28 18:49:00,42.2,32.0,29.85,SSW,211,5.0,5.0,67,0.00,,---,0.00,VWS V15.00,2013-12-29 00:49:00,
2013-12-28 18:50:00,42.2,32.0,29.85,SSW,211,4.0,5.0,67,0.00,,---,0.00,VWS V15.00,2013-12-29 00:50:00,
2013-12-28 18:51:00,42.1,32.0,29.85,SSW,211,4.0,5.0,67,0.00,,---,0.00,VWS V15.00,2013-12-29 00:51:00,
2013-12-28 18:52:00,42.1,32.0,29.85,SSW,211,3.0,5.0,67,0.00,,---,0.00,VWS V15.00,2013-12-29 00:52:00,
2013-12-28 18:54:00,41.9,31.8,29.85,SSW,211,2.0,5.0,67,0.00,,---,0.00,VWS V15.00,2013-12-29 00:54:00,
2013-12-28 18:55:00,41.9,31.8,29.85,SSW,211,2.0,5.0,67,0.00,,---,0.00,VWS V15.00,2013-12-29 00:55:00,
2013-12-28 18:56:00,41.8,32.0,29.85,SSW,211,1.0,5.0,68,0.00,,---,0.00,VWS V15.00,2013-12-29 00:56:00,
2013-12-28 18:57:00,41.8,32.0,29.85,SSW,211,1.0,5.0,68,0.00,,---,0.00,VWS V15.00,2013-12-29 00:57:00,
2013-12-28 18:59:00,41.6,31.8,29.85,SSW,211,0.0,5.0,68,0.00,,---,0.00,VWS V15.00,2013-12-29 00:59:00,
2013-12-28 19:00:00,41.6,31.8,29.87,SSW,211,0.0,5.0,68,0.00,,---,0.00,VWS V15.00,2013-12-29 01:00:00,
2013-12-28 19:01:00,41.5,31.7,29.87,SSW,211,0.0,0.0,68,0.00,,---,0.00,VWS V15.00,2013-12-29 01:01:00,
2013-12-28 19:02:00,41.3,31.5,29.87,SSW,211,0.0,0.0,68,0.00,,---,0.00,VWS V15.00,2013-12-29 01:02:00,
2013-12-28 19:04:00,41.2,31.5,29.87,SSW,211,1.0,1.0,68,0.00,,---,0.00,VWS V15.00,2013-12-29 01:04:00,
2013-12-28 19:05:00,41.1,31.4,29.87,SSW,211,0.0,1.0,68,0.00,,---,0.00,VWS V15.00,2013-12-29 01:05:00,
2013-12-28 19:06:00,41.1,31.7,29.87,SSW,211,0.0,1.0,69,0.00,,---,0.00,VWS V15.00,2013-12-29 01:06:00,
2013-12-28 19:07:00,41.1,31.7,29.87,SSW,211,1.0,1.0,69,0.00,,---,0.00,VWS V15.00,2013-12-29 01:07:00,
2013-12-28 19:09:00,41.1,31.7,29.87,SSW,211,1.0,2.0,69,0.00,,---,0.00,VWS V15.00,2013-12-29 01:09:00,
2013-12-28 19:10:00,41.1,31.7,29.87,SSW,211,2.0,3.0,69,0.00,,---,0.00,VWS V15.00,2013-12-29 01:10:00,
2013-12-28 19:11:00,41.1,31.7,29.87,SSW,211,2.0,3.0,69,0.00,,---,0.00,VWS V15.00,2013-12-29 01:11:00,
2013-12-28 19:12:00,41.1,31.7,29.87,SSW,211,2.0,3.0,69,0.00,,---,0.00,VWS V15.00,2013-12-29 01:12:00,
2013-12-28 19:14:00,41.2,31.8,29.87,SSW,211,2.0,3.0,69,0.00,,---,0.00,VWS V15.00,2013-12-29 01:14:00,
2013-12-28 19:15:00,41.2,31.8,29.87,SSW,211,2.0,3.0,69,0.00,,---,0.00,VWS V15.00,2013-12-29 01:15:00,
2013-12-28 19:16:00,41.2,31.8,29.87,SSW,211,2.0,3.0,69,0.00,,---,0.00,VWS V15.00,2013-12-29 01:16:00,
2013-12-28 19:17:00,41.2,31.8,29.87,SSW,211,2.0,3.0,69,0.00,,---,0.00,VWS V15.00,2013-12-29 01:17:00,
2013-12-28 19:19:00,41.2,31.8,29.87,SSW,211,2.0,3.0,69,0.00,,---,0.00,VWS V15.00,2013-12-29 01:19:00,
2013-12-28 19:20:00,41.2,31.8,29.87,SSW,211,1.0,3.0,69,0.00,,---,0.00,VWS V15.00,2013-12-29 01:20:00,
2013-12-28 19:21:00,41.1,31.7,29.87,SSW,211,1.0,2.0,69,0.00,,---,0.00,VWS V15.00,2013-12-29 01:21:00,
2013-12-28 19:22:00,41.1,31.7,29.87,SSW,211,1.0,2.0,69,0.00,,---,0.00,VWS V15.00,2013-12-29 01:22:00,
2013-12-28 19:24:00,41.1,32.1,29.87,SSW,211,2.0,2.0,70,0.00,,---,0.00,VWS V15.00,2013-12-29 01:24:00,
2013-12-28 19:25:00,41.1,32.1,29.87,SSW,211,2.0,2.0,70,0.00,,---,0.00,VWS V15.00,2013-12-29 01:25:00,
2013-12-28 19:26:00,40.9,31.9,29.87,SSW,211,1.0,2.0,70,0.00,,---,0.00,VWS V15.00,2013-12-29 01:26:00,
2013-12-28 19:27:00,40.9,31.9,29.87,SSW,211,1.0,2.0,70,0.00,,---,0.00,VWS V15.00,2013-12-29 01:27:00,
2013-12-28 19:29:00,40.9,31.9,29.87,SSW,211,0.0,2.0,70,0.00,,---,0.00,VWS V15.00,2013-12-29 01:29:00,
2013-12-28 19:30:00,40.9,31.9,29.88,SSW,211,0.0,2.0,70,0.00,,---,0.00,VWS V15.00,2013-12-29 01:30:00,
2013-12-28 19:32:00,40.8,31.8,29.88,SSW,211,0.0,0.0,70,0.00,,---,0.00,VWS V15.00,2013-12-29 01:32:00,
2013-12-28 19:34:00,40.6,31.6,29.88,SSW,211,2.0,2.0,70,0.00,,---,0.00,VWS V15.00,2013-12-29 01:34:00,
2013-12-28 19:35:00,40.6,31.6,29.88,SSW,211,2.0,2.0,70,0.00,,---,0.00,VWS V15.00,2013-12-29 01:35:00,
2013-12-28 19:37:00,40.5,31.5,29.88,SSW,211,2.0,2.0,70,0.00,,---,0.00,VWS V15.00,2013-12-29 01:37:00,
2013-12-28 19:39:00,40.1,30.8,29.88,SW,223,2.0,3.0,69,0.00,,---,0.00,VWS V15.00,2013-12-29 01:39:00,
2013-12-28 19:40:00,39.9,30.6,29.88,SW,223,2.0,3.0,69,0.00,,---,0.00,VWS V15.00,2013-12-29 01:40:00,
2013-12-28 19:42:00,39.5,30.5,29.88,SW,223,3.0,3.0,70,0.00,,---,0.00,VWS V15.00,2013-12-29 01:42:00,
2013-12-28 19:44:00,39.3,31.0,29.88,SW,228,2.0,3.0,72,0.00,,---,0.00,VWS V15.00,2013-12-29 01:44:00,
2013-12-28 19:45:00,39.3,31.0,29.90,SW,228,2.0,3.0,72,0.00,,---,0.00,VWS V15.00,2013-12-29 01:45:00,
2013-12-28 19:47:00,39.3,31.0,29.90,SW,229,1.0,3.0,72,0.00,,---,0.00,VWS V15.00,2013-12-29 01:47:00,
2013-12-28 19:49:00,39.3,31.4,29.90,SW,231,2.0,3.0,73,0.00,,---,0.00,VWS V15.00,2013-12-29 01:49:00,
2013-12-28 19:50:00,39.3,31.4,29.90,SW,231,3.0,3.0,73,0.00,,---,0.00,VWS V15.00,2013-12-29 01:50:00,
2013-12-28 19:52:00,39.5,31.6,29.90,West,270,2.0,3.0,73,0.00,,---,0.00,VWS V15.00,2013-12-29 01:52:00,
2013-12-28 19:54:00,39.6,31.7,29.90,West,277,3.0,4.0,73,0.00,,---,0.00,VWS V15.00,2013-12-29 01:54:00,
2013-12-28 19:56:00,39.6,31.7,29.90,West,277,3.0,4.0,73,0.00,,---,0.00,VWS V15.00,2013-12-29 01:56:00,
2013-12-28 19:57:00,39.8,31.9,29.90,West,277,1.0,4.0,73,0.00,,---,0.00,VWS V15.00,2013-12-29 01:57:00,
2013-12-28 19:58:00,39.8,31.9,29.90,West,277,2.0,4.0,73,0.00,,---,0.00,VWS V15.00,2013-12-29 01:58:00,
2013-12-28 19:59:00,39.9,31.6,29.90,NW,320,2.0,4.0,72,0.00,,---,0.00,VWS V15.00,2013-12-29 01:59:00,
2013-12-28 20:01:00,39.9,32.0,29.90,NW,320,0.0,0.0,73,0.00,,---,0.00,VWS V15.00,2013-12-29 02:01:00,
2013-12-28 20:03:00,39.9,31.6,29.90,NW,320,1.0,1.0,72,0.00,,---,0.00,VWS V15.00,2013-12-29 02:03:00,
2013-12-28 20:04:00,39.9,31.6,29.90,NW,320,1.0,1.0,72,0.00,,---,0.00,VWS V15.00,2013-12-29 02:04:00,
2013-12-28 20:06:00,39.8,31.5,29.90,NW,320,0.0,1.0,72,0.00,,---,0.00,VWS V15.00,2013-12-29 02:06:00,
2013-12-28 20:08:00,39.6,31.3,29.90,NW,320,0.0,1.0,72,0.00,,---,0.00,VWS V15.00,2013-12-29 02:08:00,
2013-12-28 20:09:00,39.5,31.2,29.90,NW,320,0.0,1.0,72,0.00,,---,0.00,VWS V15.00,2013-12-29 02:09:00,
2013-12-28 20:11:00,39.3,31.4,29.90,NW,320,0.0,0.0,73,0.00,,---,0.00,VWS V15.00,2013-12-29 02:11:00,
2013-12-28 20:13:00,39.2,31.0,29.90,NW,320,0.0,0.0,72,0.00,,---,0.00,VWS V15.00,2013-12-29 02:13:00,
2013-12-28 20:15:00,38.9,30.7,29.90,NW,320,0.0,0.0,72,0.00,,---,0.00,VWS V15.00,2013-12-29 02:15:00,
2013-12-28 20:16:00,38.6,30.4,29.90,NW,320,0.0,1.0,72,0.00,,---,0.00,VWS V15.00,2013-12-29 02:16:00,
2013-12-28 20:18:00,38.2,30.0,29.90,NW,320,0.0,1.0,72,0.00,,---,0.00,VWS V15.00,2013-12-29 02:18:00,
2013-12-28 20:20:00,37.9,30.0,29.90,NW,320,0.0,1.0,73,0.00,,---,0.00,VWS V15.00,2013-12-29 02:20:00,
2013-12-28 20:21:00,37.6,29.7,29.90,NW,320,0.0,1.0,73,0.00,,---,0.00,VWS V15.00,2013-12-29 02:21:00,
2013-12-28 20:23:00,37.3,29.5,29.90,NW,320,0.0,1.0,73,0.00,,---,0.00,VWS V15.00,2013-12-29 02:23:00,
2013-12-28 20:24:00,37.3,29.5,29.90,NW,320,0.0,1.0,73,0.00,,---,0.00,VWS V15.00,2013-12-29 02:24:00,
2013-12-28 20:25:00,37.0,29.2,29.90,NW,320,0.0,1.0,73,0.00,,---,0.00,VWS V15.00,2013-12-29 02:25:00,
2013-12-28 20:26:00,36.9,29.1,29.90,NW,320,0.0,1.0,73,0.00,,---,0.00,VWS V15.00,2013-12-29 02:26:00,
2013-12-28 20:28:00,36.6,29.1,29.90,NW,320,0.0,1.0,74,0.00,,---,0.00,VWS V15.00,2013-12-29 02:28:00,
2013-12-28 20:29:00,36.6,29.1,29.90,NW,320,0.0,1.0,74,0.00,,---,0.00,VWS V15.00,2013-12-29 02:29:00,
2013-12-28 20:30:00,36.3,28.8,29.91,NW,320,0.0,0.0,74,0.00,,---,0.00,VWS V15.00,2013-12-29 02:30:00,
2013-12-28 20:31:00,36.2,28.7,29.91,NW,320,0.0,0.0,74,0.00,,---,0.00,VWS V15.00,2013-12-29 02:31:00,
2013-12-28 20:33:00,36.2,29.0,29.91,NW,320,0.0,0.0,75,0.00,,---,0.00,VWS V15.00,2013-12-29 02:33:00,
2013-12-28 20:34:00,36.0,28.9,29.91,NW,320,0.0,0.0,75,0.00,,---,0.00,VWS V15.00,2013-12-29 02:34:00,
2013-12-28 20:36:00,36.0,28.9,29.91,NW,320,0.0,0.0,75,0.00,,---,0.00,VWS V15.00,2013-12-29 02:36:00,
2013-12-28 20:38:00,35.8,28.7,29.91,NW,320,0.0,0.0,75,0.00,,---,0.00,VWS V15.00,2013-12-29 02:38:00,
2013-12-28 20:39:00,35.8,28.7,29.91,NW,320,0.0,0.0,75,0.00,,---,0.00,VWS V15.00,2013-12-29 02:39:00,
2013-12-28 20:41:00,35.6,28.8,29.91,NW,320,0.0,0.0,76,0.00,,---,0.00,VWS V15.00,2013-12-29 02:41:00,
2013-12-28 20:44:00,35.5,28.7,29.91,NW,320,0.0,0.0,76,0.00,,---,0.00,VWS V15.00,2013-12-29 02:44:00,
2013-12-28 20:45:00,35.3,28.5,29.92,NW,320,0.0,0.0,76,0.00,,---,0.00,VWS V15.00,2013-12-29 02:45:00,
2013-12-28 20:46:00,35.3,28.5,29.92,NW,320,0.0,0.0,76,0.00,,---,0.00,VWS V15.00,2013-12-29 02:46:00,
2013-12-28 20:48:00,35.2,28.7,29.92,NW,320,0.0,0.0,77,0.00,,---,0.00,VWS V15.00,2013-12-29 02:48:00,
2013-12-28 20:49:00,35.2,28.7,29.92,NW,320,0.0,0.0,77,0.00,,---,0.00,VWS V15.00,2013-12-29 02:49:00,
2013-12-28 20:50:00,35.2,28.7,29.92,NW,320,0.0,0.0,77,0.00,,---,0.00,VWS V15.00,2013-12-29 02:50:00,
2013-12-28 20:51:00,35.2,28.7,29.92,NW,320,0.0,0.0,77,0.00,,---,0.00,VWS V15.00,2013-12-29 02:51:00,
2013-12-28 20:54:00,35.0,28.5,29.92,NW,320,0.0,0.0,77,0.00,,---,0.00,VWS V15.00,2013-12-29 02:54:00,
2013-12-28 20:55:00,35.0,28.5,29.92,NW,320,1.0,1.0,77,0.00,,---,0.00,VWS V15.00,2013-12-29 02:55:00,
2013-12-28 20:56:00,34.9,28.8,29.92,NNW,328,5.0,5.0,78,0.00,,---,0.00,VWS V15.00,2013-12-29 02:56:00,
2013-12-28 20:59:00,35.0,28.9,29.92,NW,324,11.0,19.0,78,0.00,,---,0.00,VWS V15.00,2013-12-29 02:59:00,
2013-12-28 21:00:00,35.2,29.4,29.96,West,279,6.0,19.0,79,0.00,,---,0.00,VWS V15.00,2013-12-29 03:00:00,
2013-12-28 21:01:00,35.2,29.4,29.96,NW,316,8.0,13.0,79,0.00,,---,0.00,VWS V15.00,2013-12-29 03:01:00,
2013-12-28 21:04:00,35.6,30.0,29.96,NW,317,7.0,13.0,80,0.00,,---,0.00,VWS V15.00,2013-12-29 03:04:00,
2013-12-28 21:05:00,35.8,29.9,29.96,WNW,302,10.0,13.0,79,0.00,,---,0.00,VWS V15.00,2013-12-29 03:05:00,
2013-12-28 21:06:00,35.8,29.9,29.96,North,351,10.0,13.0,79,0.00,,---,0.00,VWS V15.00,2013-12-29 03:06:00,
2013-12-28 21:09:00,35.9,29.7,29.96,NNW,331,7.0,13.0,78,0.00,,---,0.00,VWS V15.00,2013-12-29 03:09:00,
2013-12-28 21:10:00,35.9,29.7,29.96,NW,325,5.0,13.0,78,0.00,,---,0.00,VWS V15.00,2013-12-29 03:10:00,
2013-12-28 21:11:00,35.9,29.7,29.96,NW,320,5.0,7.0,78,0.00,,---,0.00,VWS V15.00,2013-12-29 03:11:00,
2013-12-28 21:14:00,35.8,29.6,29.96,NNW,348,7.0,10.0,78,0.00,,---,0.00,VWS V15.00,2013-12-29 03:14:00,
2013-12-28 21:15:00,35.8,29.6,29.96,NNW,327,5.0,12.0,78,0.00,,---,0.00,VWS V15.00,2013-12-29 03:15:00,
2013-12-28 21:16:00,35.8,29.6,29.96,North,350,7.0,14.0,78,0.00,,---,0.00,VWS V15.00,2013-12-29 03:16:00,
2013-12-28 21:19:00,35.8,29.6,29.96,North,360,4.0,14.0,78,0.00,,---,0.00,VWS V15.00,2013-12-29 03:19:00,
2013-12-28 21:20:00,35.8,29.6,29.96,NNW,338,6.0,14.0,78,0.00,,---,0.00,VWS V15.00,2013-12-29 03:20:00,
2013-12-28 21:21:00,35.9,29.7,29.96,NNW,332,5.0,8.0,78,0.00,,---,0.00,VWS V15.00,2013-12-29 03:21:00,
2013-12-28 21:22:00,35.9,29.7,29.96,NW,318,2.0,9.0,78,0.00,,---,0.00,VWS V15.00,2013-12-29 03:22:00,
2013-12-28 21:24:00,35.9,29.7,29.96,North,360,6.0,9.0,78,0.00,,---,0.00,VWS V15.00,2013-12-29 03:24:00,
2013-12-28 21:25:00,35.9,29.7,29.96,NW,326,5.0,11.0,78,0.00,,---,0.00,VWS V15.00,2013-12-29 03:25:00,
2013-12-28 21:26:00,36.0,29.8,29.96,NW,310,5.0,11.0,78,0.00,,---,0.00,VWS V15.00,2013-12-29 03:26:00,
2013-12-28 21:27:00,36.0,29.8,29.96,NNW,339,6.0,11.0,78,0.00,,---,0.00,VWS V15.00,2013-12-29 03:27:00,
2013-12-28 21:29:00,36.2,30.0,29.96,NNW,346,4.0,11.0,78,0.00,,---,0.00,VWS V15.00,2013-12-29 03:29:00,
2013-12-28 21:30:00,36.2,30.0,29.96,North,350,3.0,11.0,78,0.00,,---,0.00,VWS V15.00,2013-12-29 03:30:00,
2013-12-28 21:31:00,36.2,29.7,29.96,NNW,329,4.0,9.0,77,0.00,,---,0.00,VWS V15.00,2013-12-29 03:31:00,
2013-12-28 21:32:00,36.2,29.7,29.96,WNW,284,3.0,9.0,77,0.00,,---,0.00,VWS V15.00,2013-12-29 03:32:00,
2013-12-28 21:34:00,36.3,29.8,29.96,WNW,301,3.0,11.0,77,0.00,,---,0.00,VWS V15.00,2013-12-29 03:34:00,
2013-12-28 21:35:00,36.3,29.8,29.96,NW,325,6.0,11.0,77,0.00,,---,0.00,VWS V15.00,2013-12-29 03:35:00,
2013-12-28 21:36:00,36.5,30.0,29.96,NNW,331,3.0,11.0,77,0.00,,---,0.00,VWS V15.00,2013-12-29 03:36:00,
2013-12-28 21:37:00,36.5,30.0,29.96,North,360,5.0,12.0,77,0.00,,---,0.00,VWS V15.00,2013-12-29 03:37:00,
2013-12-28 21:39:00,36.6,29.8,29.96,NNW,338,4.0,12.0,76,0.00,,---,0.00,VWS V15.00,2013-12-29 03:39:00,
2013-12-28 21:40:00,36.6,29.8,29.96,North,351,4.0,5.0,76,0.00,,---,0.00,VWS V15.00,2013-12-29 03:40:00,
2013-12-28 21:41:00,36.6,29.8,29.96,NNW,333,4.0,5.0,76,0.00,,---,0.00,VWS V15.00,2013-12-29 03:41:00,
2013-12-28 21:42:00,36.8,30.0,29.96,NNW,347,9.0,13.0,76,0.00,,---,0.00,VWS V15.00,2013-12-29 03:42:00,
2013-12-28 21:44:00,36.9,30.0,29.96,North,350,5.0,14.0,76,0.00,,---,0.00,VWS V15.00,2013-12-29 03:44:00,
2013-12-28 21:45:00,37.0,29.8,29.96,NNE,15,3.0,14.0,75,0.00,,---,0.00,VWS V15.00,2013-12-29 03:45:00,
2013-12-28 21:46:00,37.2,30.0,29.96,North,355,7.0,14.0,75,0.00,,---,0.00,VWS V15.00,2013-12-29 03:46:00,
2013-12-28 21:47:00,37.2,29.7,29.96,NNW,333,6.0,14.0,74,0.00,,---,0.00,VWS V15.00,2013-12-29 03:47:00,
2013-12-28 21:49:00,37.5,30.0,29.96,North,5,6.0,15.0,74,0.00,,---,0.00,VWS V15.00,2013-12-29 03:49:00,
2013-12-28 21:50:00,37.6,29.7,29.96,WNW,298,5.0,12.0,73,0.00,,---,0.00,VWS V15.00,2013-12-29 03:50:00,
2013-12-28 21:51:00,37.8,29.9,29.96,NNW,341,10.0,14.0,73,0.00,,---,0.00,VWS V15.00,2013-12-29 03:51:00,
2013-12-28 21:52:00,37.9,29.7,29.96,NE,37,6.0,14.0,72,0.00,,---,0.00,VWS V15.00,2013-12-29 03:52:00,
2013-12-28 21:54:00,38.0,29.8,29.96,NNW,344,6.0,14.0,72,0.00,,---,0.00,VWS V15.00,2013-12-29 03:54:00,
2013-12-28 21:55:00,38.2,29.6,29.96,NNE,19,6.0,14.0,71,0.00,,---,0.00,VWS V15.00,2013-12-29 03:55:00,
2013-12-28 21:56:00,38.3,29.7,29.96,NNE,13,9.0,16.0,71,0.00,,---,0.00,VWS V15.00,2013-12-29 03:56:00,
2013-12-28 21:57:00,38.5,29.6,29.96,NNE,19,10.0,16.0,70,0.00,,---,0.00,VWS V15.00,2013-12-29 03:57:00,
2013-12-28 21:59:00,38.8,29.9,29.97,NW,323,12.0,16.0,70,0.00,,---,0.00,VWS V15.00,2013-12-29 03:59:00,
2013-12-28 22:00:00,38.9,29.6,29.97,North,9,5.0,8.0,69,0.00,,---,0.00,VWS V15.00,2013-12-29 04:00:00,
2013-12-28 22:02:00,39.1,29.8,29.97,NNW,331,8.0,16.0,69,0.00,,---,0.00,VWS V15.00,2013-12-29 04:02:00,
2013-12-28 22:03:00,39.2,29.9,29.97,NNW,348,15.0,17.0,69,0.00,,---,0.00,VWS V15.00,2013-12-29 04:03:00,
2013-12-28 22:04:00,39.2,29.5,29.97,NNE,13,7.0,17.0,68,0.00,,---,0.00,VWS V15.00,2013-12-29 04:04:00,
2013-12-28 22:05:00,39.3,29.6,29.97,North,355,15.0,17.0,68,0.00,,---,0.00,VWS V15.00,2013-12-29 04:05:00,
2013-12-28 22:07:00,39.3,29.6,29.97,NNE,22,12.0,23.0,68,0.00,,---,0.00,VWS V15.00,2013-12-29 04:07:00,
2013-12-28 22:08:00,39.5,29.8,29.97,North,5,8.0,23.0,68,0.00,,---,0.00,VWS V15.00,2013-12-29 04:08:00,
2013-12-28 22:09:00,39.5,29.8,29.97,North,11,6.0,23.0,68,0.00,,---,0.00,VWS V15.00,2013-12-29 04:09:00,
2013-12-28 22:11:00,39.5,29.8,29.97,North,11,10.0,14.0,68,0.00,,---,0.00,VWS V15.00,2013-12-29 04:11:00,
2013-12-28 22:12:00,39.6,29.9,29.97,NNE,15,11.0,16.0,68,0.00,,---,0.00,VWS V15.00,2013-12-29 04:12:00,
2013-12-28 22:13:00,39.6,29.9,29.97,NNE,30,11.0,20.0,68,0.00,,---,0.00,VWS V15.00,2013-12-29 04:13:00,
2013-12-28 22:14:00,39.6,29.9,29.97,North,5,11.0,20.0,68,0.00,,---,0.00,VWS V15.00,2013-12-29 04:14:00,
2013-12-28 22:16:00,39.8,30.1,29.97,North,5,12.0,20.0,68,0.00,,---,0.00,VWS V15.00,2013-12-29 04:16:00,
2013-12-28 22:17:00,39.8,30.1,29.97,North,360,9.0,20.0,68,0.00,,---,0.00,VWS V15.00,2013-12-29 04:17:00,
2013-12-28 22:19:00,39.9,30.2,29.97,North,355,13.0,20.0,68,0.00,,---,0.00,VWS V15.00,2013-12-29 04:19:00,
2013-12-28 22:20:00,39.9,30.2,29.97,North,0,12.0,20.0,68,0.00,,---,0.00,VWS V15.00,2013-12-29 04:20:00,
2013-12-28 22:30:00,39.8,30.5,29.97,North,0,12.0,22.0,69,0.00,,---,0.00,VWS V15.00,2013-12-29 04:30:00,
2013-12-28 22:40:00,39.8,30.5,29.97,North,0,12.0,22.0,69,0.00,,---,0.00,VWS V15.00,2013-12-29 04:40:00,
2013-12-28 22:50:00,38.9,30.0,29.98,North,0,13.0,21.0,70,0.00,,---,0.00,VWS V15.00,2013-12-29 04:50:00,
2013-12-28 23:00:00,37.6,29.7,30.00,North,0,10.0,17.0,73,0.00,,---,0.00,VWS V15.00,2013-12-29 05:00:00,
2013-12-28 23:10:00,36.5,29.3,30.00,North,0,11.0,23.0,75,0.00,,---,0.00,VWS V15.00,2013-12-29 05:10:00,
2013-12-28 23:20:00,34.9,28.1,30.02,North,0,12.0,26.0,76,0.00,,---,0.00,VWS V15.00,2013-12-29 05:20:00,
2013-12-28 23:30:00,33.7,27.3,30.03,North,0,13.0,26.0,77,0.00,,---,0.00,VWS V15.00,2013-12-29 05:30:00,
2013-12-28 23:40:00,32.9,26.8,30.03,North,0,13.0,26.0,78,0.00,,---,0.00,VWS V15.00,2013-12-29 05:40:00,
2013-12-28 23:50:00,32.1,25.4,30.04,North,0,11.0,22.0,76,0.00,,---,0.00,VWS V15.00,2013-12-29 05:50:00,